Gasconade River (Missouri), Rich Fountain (06934000)

StateMissouriLatestGood (2730 cfs)
RiverGasconade RiverRatingObservedEstimated
Updated2026-05-10 8:30 (1 hour ago)Flood - The river is flooding. Obstacles can be treacherous or deadly. The river should be avoided at this stage for casual trips and definitely for the inexperienced. Trips should be attempted only with protective gear and equipment.Flood(none)13580
Discharge2730 cfs (median: 3210 cfs)High - The river is high and potentially dangerous, especially for the young and / or inexperienced. Normal stream obstacles are sometimes difficult to navigate. Extended distances can be attempted, but canoe travel may not be advisable.High(none)3151
Height4.15 feetGood - Conditions are ideal for a canoe or kayak. Boats typically will drag on fewer than one-quarter of riffles, if at all, and portages are unnecessary or rare. Normal float lengths can be attempted without a problem.Good(none)1994
TrendFalling (falling over 24 hours)Low - River is low but can still be floated. Some riffles are okay but most come with significant dragging and might need a portage. Float lengths should be reduced to accommodate low flow, dragging, and portages.Low(none)1074
USGSExternal icon USGS Site (External icon Duck Duck Go Maps)Poor - River is too low to float comfortably. Most or all riffles will drag or must be portaged and some obstacles (such as slick shelf rock) cause undue problems. Avoid the river at this stage for casual paddling trips.Poor(none)484

Trending Data

Plot Image

Trips for Gasconade River (Missouri), Rich Fountain (06934000)

DateStartEndDistanceConditionDischargeHeightFishingDetails

A total of 0 rows are displayed.

Condition Descriptions

Fishing Conditions

Fish Species

Notes

Classic Trip List

The classic River Trips application is still available for use. It is updated with the new system using a data retrofit. It is no longer maintained. The original River Trips application is no longer updated (as of 1 Dec 2016) but can be checked for errors or for the condition of the data before it was converted to the new system.

Gauge Data Table

ObservationHeightDischargeMaximum
Discharge
Minimum
Discharge
Mean
Discharge
P05P10P20P25P50
(Median)
P75P80P90P95
2026-05-10 08:30 4.15 2730 39000 (2002) 706 (2001) 5710 815 1160 1610 1780 3210 6450 7530 14200 23200
2026-05-10 07:30 4.16 2740 39000 (2002) 706 (2001) 5710 815 1160 1610 1780 3210 6450 7530 14200 23200
2026-05-10 06:30 4.16 2740 39000 (2002) 706 (2001) 5710 815 1160 1610 1780 3210 6450 7530 14200 23200
2026-05-10 05:30 4.17 2760 39000 (2002) 706 (2001) 5710 815 1160 1610 1780 3210 6450 7530 14200 23200
2026-05-10 04:30 4.18 2770 39000 (2002) 706 (2001) 5710 815 1160 1610 1780 3210 6450 7530 14200 23200
2026-05-10 03:30 4.18 2770 39000 (2002) 706 (2001) 5710 815 1160 1610 1780 3210 6450 7530 14200 23200
2026-05-10 02:30 4.19 2780 39000 (2002) 706 (2001) 5710 815 1160 1610 1780 3210 6450 7530 14200 23200
2026-05-10 01:30 4.19 2780 39000 (2002) 706 (2001) 5710 815 1160 1610 1780 3210 6450 7530 14200 23200
2026-05-10 00:30 4.19 2780 39000 (2002) 706 (2001) 5710 815 1160 1610 1780 3210 6450 7530 14200 23200
2026-05-09 23:30 4.20 2800 39000 (2002) 706 (2001) 5710 815 1160 1610 1780 3210 6450 7530 14200 23200
2026-05-09 22:30 4.20 2800 45800 (2022) 689 (1955) 5870 851 1210 1630 1780 3100 7010 7630 13800 23800
2026-05-09 21:30 4.20 2800 45800 (2022) 689 (1955) 5870 851 1210 1630 1780 3100 7010 7630 13800 23800
2026-05-09 20:30 4.21 2810 45800 (2022) 689 (1955) 5870 851 1210 1630 1780 3100 7010 7630 13800 23800
2026-05-09 19:30 4.22 2820 45800 (2022) 689 (1955) 5870 851 1210 1630 1780 3100 7010 7630 13800 23800
2026-05-09 18:30 4.22 2820 45800 (2022) 689 (1955) 5870 851 1210 1630 1780 3100 7010 7630 13800 23800
2026-05-09 17:30 4.22 2820 45800 (2022) 689 (1955) 5870 851 1210 1630 1780 3100 7010 7630 13800 23800
2026-05-09 16:30 4.22 2820 45800 (2022) 689 (1955) 5870 851 1210 1630 1780 3100 7010 7630 13800 23800
2026-05-09 15:30 4.23 2840 45800 (2022) 689 (1955) 5870 851 1210 1630 1780 3100 7010 7630 13800 23800
2026-05-09 14:30 4.22 2820 45800 (2022) 689 (1955) 5870 851 1210 1630 1780 3100 7010 7630 13800 23800
2026-05-09 13:30 4.23 2840 45800 (2022) 689 (1955) 5870 851 1210 1630 1780 3100 7010 7630 13800 23800
2026-05-09 12:30 4.23 2840 45800 (2022) 689 (1955) 5870 851 1210 1630 1780 3100 7010 7630 13800 23800
2026-05-09 11:30 4.24 2850 45800 (2022) 689 (1955) 5870 851 1210 1630 1780 3100 7010 7630 13800 23800
2026-05-09 10:30 4.24 2850 45800 (2022) 689 (1955) 5870 851 1210 1630 1780 3100 7010 7630 13800 23800
2026-05-09 09:30 4.25 2870 45800 (2022) 689 (1955) 5870 851 1210 1630 1780 3100 7010 7630 13800 23800
2026-05-09 08:30 4.24 2850 45800 (2022) 689 (1955) 5870 851 1210 1630 1780 3100 7010 7630 13800 23800
2026-05-09 07:30 4.25 2870 45800 (2022) 689 (1955) 5870 851 1210 1630 1780 3100 7010 7630 13800 23800
2026-05-09 06:30 4.25 2870 45800 (2022) 689 (1955) 5870 851 1210 1630 1780 3100 7010 7630 13800 23800
2026-05-09 05:30 4.26 2880 45800 (2022) 689 (1955) 5870 851 1210 1630 1780 3100 7010 7630 13800 23800
2026-05-09 04:30 4.26 2880 45800 (2022) 689 (1955) 5870 851 1210 1630 1780 3100 7010 7630 13800 23800
2026-05-09 03:30 4.27 2890 45800 (2022) 689 (1955) 5870 851 1210 1630 1780 3100 7010 7630 13800 23800
2026-05-09 02:30 4.27 2890 45800 (2022) 689 (1955) 5870 851 1210 1630 1780 3100 7010 7630 13800 23800
2026-05-09 01:30 4.27 2890 45800 (2022) 689 (1955) 5870 851 1210 1630 1780 3100 7010 7630 13800 23800
2026-05-09 00:30 4.27 2890 45800 (2022) 689 (1955) 5870 851 1210 1630 1780 3100 7010 7630 13800 23800
2026-05-08 23:30 4.28 2910 45800 (2022) 689 (1955) 5870 851 1210 1630 1780 3100 7010 7630 13800 23800
2026-05-08 22:30 4.29 2920 52600 (2022) 700 (1955) 5740 851 1200 1560 1920 3190 7180 8200 11900 19900
2026-05-08 21:30 4.28 2910 52600 (2022) 700 (1955) 5740 851 1200 1560 1920 3190 7180 8200 11900 19900
2026-05-08 20:30 4.27 2890 52600 (2022) 700 (1955) 5740 851 1200 1560 1920 3190 7180 8200 11900 19900
2026-05-08 19:30 4.27 2890 52600 (2022) 700 (1955) 5740 851 1200 1560 1920 3190 7180 8200 11900 19900
2026-05-08 18:30 4.28 2910 52600 (2022) 700 (1955) 5740 851 1200 1560 1920 3190 7180 8200 11900 19900
2026-05-08 17:30 4.28 2910 52600 (2022) 700 (1955) 5740 851 1200 1560 1920 3190 7180 8200 11900 19900
2026-05-08 16:30 4.29 2920 52600 (2022) 700 (1955) 5740 851 1200 1560 1920 3190 7180 8200 11900 19900
2026-05-08 15:30 4.29 2920 52600 (2022) 700 (1955) 5740 851 1200 1560 1920 3190 7180 8200 11900 19900
2026-05-08 14:30 4.31 2950 52600 (2022) 700 (1955) 5740 851 1200 1560 1920 3190 7180 8200 11900 19900
2026-05-08 13:30 4.31 2950 52600 (2022) 700 (1955) 5740 851 1200 1560 1920 3190 7180 8200 11900 19900
2026-05-08 12:30 4.32 2960 52600 (2022) 700 (1955) 5740 851 1200 1560 1920 3190 7180 8200 11900 19900
2026-05-08 11:30 4.33 2980 52600 (2022) 700 (1955) 5740 851 1200 1560 1920 3190 7180 8200 11900 19900
2026-05-08 10:30 4.34 2990 52600 (2022) 700 (1955) 5740 851 1200 1560 1920 3190 7180 8200 11900 19900
2026-05-08 09:30 4.34 2990 52600 (2022) 700 (1955) 5740 851 1200 1560 1920 3190 7180 8200 11900 19900
2026-05-08 08:30 4.35 3010 52600 (2022) 700 (1955) 5740 851 1200 1560 1920 3190 7180 8200 11900 19900
2026-05-08 07:30 4.36 3020 52600 (2022) 700 (1955) 5740 851 1200 1560 1920 3190 7180 8200 11900 19900
2026-05-08 06:30 4.36 3020 52600 (2022) 700 (1955) 5740 851 1200 1560 1920 3190 7180 8200 11900 19900
2026-05-08 05:30 4.37 3030 52600 (2022) 700 (1955) 5740 851 1200 1560 1920 3190 7180 8200 11900 19900
2026-05-08 04:30 4.38 3050 52600 (2022) 700 (1955) 5740 851 1200 1560 1920 3190 7180 8200 11900 19900
2026-05-08 03:30 4.39 3060 52600 (2022) 700 (1955) 5740 851 1200 1560 1920 3190 7180 8200 11900 19900
2026-05-08 02:30 4.40 3080 52600 (2022) 700 (1955) 5740 851 1200 1560 1920 3190 7180 8200 11900 19900
2026-05-08 01:30 4.41 3090 52600 (2022) 700 (1955) 5740 851 1200 1560 1920 3190 7180 8200 11900 19900
2026-05-08 00:30 4.42 3110 52600 (2022) 700 (1955) 5740 851 1200 1560 1920 3190 7180 8200 11900 19900
2026-05-07 23:30 4.43 3120 52600 (2022) 700 (1955) 5740 851 1200 1560 1920 3190 7180 8200 11900 19900
2026-05-07 22:30 4.44 3130 45000 (2022) 700 (1955) 5980 886 1270 1570 1890 3360 6070 7570 12800 23100
2026-05-07 21:30 4.45 3150 45000 (2022) 700 (1955) 5980 886 1270 1570 1890 3360 6070 7570 12800 23100
2026-05-07 20:30 4.46 3160 45000 (2022) 700 (1955) 5980 886 1270 1570 1890 3360 6070 7570 12800 23100
2026-05-07 19:30 4.47 3180 45000 (2022) 700 (1955) 5980 886 1270 1570 1890 3360 6070 7570 12800 23100
2026-05-07 18:30 4.48 3190 45000 (2022) 700 (1955) 5980 886 1270 1570 1890 3360 6070 7570 12800 23100
2026-05-07 17:30 4.50 3220 45000 (2022) 700 (1955) 5980 886 1270 1570 1890 3360 6070 7570 12800 23100
2026-05-07 16:30 4.51 3240 45000 (2022) 700 (1955) 5980 886 1270 1570 1890 3360 6070 7570 12800 23100
2026-05-07 15:30 4.52 3250 45000 (2022) 700 (1955) 5980 886 1270 1570 1890 3360 6070 7570 12800 23100
2026-05-07 14:30 4.53 3260 45000 (2022) 700 (1955) 5980 886 1270 1570 1890 3360 6070 7570 12800 23100
2026-05-07 13:30 4.55 3290 45000 (2022) 700 (1955) 5980 886 1270 1570 1890 3360 6070 7570 12800 23100
2026-05-07 12:30 4.56 3310 45000 (2022) 700 (1955) 5980 886 1270 1570 1890 3360 6070 7570 12800 23100
2026-05-07 11:30 4.56 3310 45000 (2022) 700 (1955) 5980 886 1270 1570 1890 3360 6070 7570 12800 23100
2026-05-07 10:30 4.58 3340 45000 (2022) 700 (1955) 5980 886 1270 1570 1890 3360 6070 7570 12800 23100
2026-05-07 09:30 4.59 3350 45000 (2022) 700 (1955) 5980 886 1270 1570 1890 3360 6070 7570 12800 23100
2026-05-07 08:30 4.59 3350 45000 (2022) 700 (1955) 5980 886 1270 1570 1890 3360 6070 7570 12800 23100
2026-05-07 07:30 4.60 3370 45000 (2022) 700 (1955) 5980 886 1270 1570 1890 3360 6070 7570 12800 23100
2026-05-07 06:30 4.61 3380 45000 (2022) 700 (1955) 5980 886 1270 1570 1890 3360 6070 7570 12800 23100
2026-05-07 05:30 4.62 3400 45000 (2022) 700 (1955) 5980 886 1270 1570 1890 3360 6070 7570 12800 23100
2026-05-07 04:30 4.63 3410 45000 (2022) 700 (1955) 5980 886 1270 1570 1890 3360 6070 7570 12800 23100
2026-05-07 03:30 4.64 3430 45000 (2022) 700 (1955) 5980 886 1270 1570 1890 3360 6070 7570 12800 23100
2026-05-07 02:30 4.65 3440 45000 (2022) 700 (1955) 5980 886 1270 1570 1890 3360 6070 7570 12800 23100
2026-05-07 01:30 4.66 3460 45000 (2022) 700 (1955) 5980 886 1270 1570 1890 3360 6070 7570 12800 23100
2026-05-07 00:30 4.67 3470 45000 (2022) 700 (1955) 5980 886 1270 1570 1890 3360 6070 7570 12800 23100
2026-05-06 23:30 4.68 3490 45000 (2022) 700 (1955) 5980 886 1270 1570 1890 3360 6070 7570 12800 23100
2026-05-06 22:30 4.68 3490 45800 (2017) 673 (2000) 6120 880 1280 1570 1920 3550 6610 7580 14600 24700
2026-05-06 21:30 4.69 3500 45800 (2017) 673 (2000) 6120 880 1280 1570 1920 3550 6610 7580 14600 24700
2026-05-06 20:30 4.71 3530 45800 (2017) 673 (2000) 6120 880 1280 1570 1920 3550 6610 7580 14600 24700
2026-05-06 19:30 4.71 3530 45800 (2017) 673 (2000) 6120 880 1280 1570 1920 3550 6610 7580 14600 24700
2026-05-06 18:30 4.71 3530 45800 (2017) 673 (2000) 6120 880 1280 1570 1920 3550 6610 7580 14600 24700
2026-05-06 17:30 4.73 3560 45800 (2017) 673 (2000) 6120 880 1280 1570 1920 3550 6610 7580 14600 24700
2026-05-06 16:30 4.74 3580 45800 (2017) 673 (2000) 6120 880 1280 1570 1920 3550 6610 7580 14600 24700
2026-05-06 15:30 4.75 3590 45800 (2017) 673 (2000) 6120 880 1280 1570 1920 3550 6610 7580 14600 24700
2026-05-06 14:30 4.75 3590 45800 (2017) 673 (2000) 6120 880 1280 1570 1920 3550 6610 7580 14600 24700
2026-05-06 13:30 4.76 3610 45800 (2017) 673 (2000) 6120 880 1280 1570 1920 3550 6610 7580 14600 24700
2026-05-06 12:30 4.78 3640 45800 (2017) 673 (2000) 6120 880 1280 1570 1920 3550 6610 7580 14600 24700
2026-05-06 11:30 4.79 3650 45800 (2017) 673 (2000) 6120 880 1280 1570 1920 3550 6610 7580 14600 24700
2026-05-06 10:30 4.80 3670 45800 (2017) 673 (2000) 6120 880 1280 1570 1920 3550 6610 7580 14600 24700
2026-05-06 09:30 4.81 3680 45800 (2017) 673 (2000) 6120 880 1280 1570 1920 3550 6610 7580 14600 24700
2026-05-06 08:30 4.82 3700 45800 (2017) 673 (2000) 6120 880 1280 1570 1920 3550 6610 7580 14600 24700
2026-05-06 07:30 4.83 3710 45800 (2017) 673 (2000) 6120 880 1280 1570 1920 3550 6610 7580 14600 24700
2026-05-06 06:30 4.84 3730 45800 (2017) 673 (2000) 6120 880 1280 1570 1920 3550 6610 7580 14600 24700
2026-05-06 05:30 4.85 3750 45800 (2017) 673 (2000) 6120 880 1280 1570 1920 3550 6610 7580 14600 24700
2026-05-06 04:30 4.86 3760 45800 (2017) 673 (2000) 6120 880 1280 1570 1920 3550 6610 7580 14600 24700
2026-05-06 03:30 4.87 3780 45800 (2017) 673 (2000) 6120 880 1280 1570 1920 3550 6610 7580 14600 24700
2026-05-06 02:30 4.88 3790 45800 (2017) 673 (2000) 6120 880 1280 1570 1920 3550 6610 7580 14600 24700
2026-05-06 01:30 4.88 3790 45800 (2017) 673 (2000) 6120 880 1280 1570 1920 3550 6610 7580 14600 24700
2026-05-06 00:30 4.89 3810 45800 (2017) 673 (2000) 6120 880 1280 1570 1920 3550 6610 7580 14600 24700
2026-05-05 23:30 4.90 3820 45800 (2017) 673 (2000) 6120 880 1280 1570 1920 3550 6610 7580 14600 24700
2026-05-05 22:30 4.90 3820 43200 (2017) 676 (2000) 6040 881 1330 1700 1990 3290 6540 8510 13700 27000
2026-05-05 21:30 4.90 3820 43200 (2017) 676 (2000) 6040 881 1330 1700 1990 3290 6540 8510 13700 27000
2026-05-05 20:30 4.91 3840 43200 (2017) 676 (2000) 6040 881 1330 1700 1990 3290 6540 8510 13700 27000
2026-05-05 19:30 4.92 3850 43200 (2017) 676 (2000) 6040 881 1330 1700 1990 3290 6540 8510 13700 27000
2026-05-05 18:30 4.93 3870 43200 (2017) 676 (2000) 6040 881 1330 1700 1990 3290 6540 8510 13700 27000
2026-05-05 17:30 4.94 3890 43200 (2017) 676 (2000) 6040 881 1330 1700 1990 3290 6540 8510 13700 27000
2026-05-05 16:30 4.95 3900 43200 (2017) 676 (2000) 6040 881 1330 1700 1990 3290 6540 8510 13700 27000
2026-05-05 15:30 4.97 3930 43200 (2017) 676 (2000) 6040 881 1330 1700 1990 3290 6540 8510 13700 27000
2026-05-05 14:30 4.97 3930 43200 (2017) 676 (2000) 6040 881 1330 1700 1990 3290 6540 8510 13700 27000
2026-05-05 13:30 4.99 3960 43200 (2017) 676 (2000) 6040 881 1330 1700 1990 3290 6540 8510 13700 27000
2026-05-05 12:30 5.00 3980 43200 (2017) 676 (2000) 6040 881 1330 1700 1990 3290 6540 8510 13700 27000
2026-05-05 11:30 5.01 4000 43200 (2017) 676 (2000) 6040 881 1330 1700 1990 3290 6540 8510 13700 27000
2026-05-05 10:30 5.03 4030 43200 (2017) 676 (2000) 6040 881 1330 1700 1990 3290 6540 8510 13700 27000
2026-05-05 09:30 5.03 4030 43200 (2017) 676 (2000) 6040 881 1330 1700 1990 3290 6540 8510 13700 27000
2026-05-05 08:30 5.05 4060 43200 (2017) 676 (2000) 6040 881 1330 1700 1990 3290 6540 8510 13700 27000
2026-05-05 07:30 5.07 4090 43200 (2017) 676 (2000) 6040 881 1330 1700 1990 3290 6540 8510 13700 27000
2026-05-05 06:30 5.08 4110 43200 (2017) 676 (2000) 6040 881 1330 1700 1990 3290 6540 8510 13700 27000
2026-05-05 05:30 5.09 4120 43200 (2017) 676 (2000) 6040 881 1330 1700 1990 3290 6540 8510 13700 27000
2026-05-05 04:30 5.09 4120 43200 (2017) 676 (2000) 6040 881 1330 1700 1990 3290 6540 8510 13700 27000
2026-05-05 03:30 5.11 4150 43200 (2017) 676 (2000) 6040 881 1330 1700 1990 3290 6540 8510 13700 27000
2026-05-05 02:30 5.12 4170 43200 (2017) 676 (2000) 6040 881 1330 1700 1990 3290 6540 8510 13700 27000
2026-05-05 01:30 5.14 4200 43200 (2017) 676 (2000) 6040 881 1330 1700 1990 3290 6540 8510 13700 27000
2026-05-05 00:30 5.15 4220 43200 (2017) 676 (2000) 6040 881 1330 1700 1990 3290 6540 8510 13700 27000
2026-05-04 23:30 5.17 4250 43200 (2017) 676 (2000) 6040 881 1330 1700 1990 3290 6540 8510 13700 27000
2026-05-04 22:30 5.18 4270 59000 (2017) 703 (2000) 6360 884 1350 1770 2120 3340 6640 7320 15000 26800
2026-05-04 21:30 5.19 4280 59000 (2017) 703 (2000) 6360 884 1350 1770 2120 3340 6640 7320 15000 26800
2026-05-04 20:30 5.21 4320 59000 (2017) 703 (2000) 6360 884 1350 1770 2120 3340 6640 7320 15000 26800
2026-05-04 19:30 5.22 4330 59000 (2017) 703 (2000) 6360 884 1350 1770 2120 3340 6640 7320 15000 26800
2026-05-04 18:30 5.23 4350 59000 (2017) 703 (2000) 6360 884 1350 1770 2120 3340 6640 7320 15000 26800
2026-05-04 17:30 5.26 4400 59000 (2017) 703 (2000) 6360 884 1350 1770 2120 3340 6640 7320 15000 26800
2026-05-04 16:30 5.28 4430 59000 (2017) 703 (2000) 6360 884 1350 1770 2120 3340 6640 7320 15000 26800
2026-05-04 15:30 5.29 4450 59000 (2017) 703 (2000) 6360 884 1350 1770 2120 3340 6640 7320 15000 26800
2026-05-04 14:30 5.30 4460 59000 (2017) 703 (2000) 6360 884 1350 1770 2120 3340 6640 7320 15000 26800
2026-05-04 13:30 5.32 4500 59000 (2017) 703 (2000) 6360 884 1350 1770 2120 3340 6640 7320 15000 26800
2026-05-04 12:30 5.33 4510 59000 (2017) 703 (2000) 6360 884 1350 1770 2120 3340 6640 7320 15000 26800
2026-05-04 11:30 5.36 4560 59000 (2017) 703 (2000) 6360 884 1350 1770 2120 3340 6640 7320 15000 26800
2026-05-04 10:30 5.37 4580 59000 (2017) 703 (2000) 6360 884 1350 1770 2120 3340 6640 7320 15000 26800
2026-05-04 09:30 5.37 4580 59000 (2017) 703 (2000) 6360 884 1350 1770 2120 3340 6640 7320 15000 26800
2026-05-04 08:30 5.39 4610 59000 (2017) 703 (2000) 6360 884 1350 1770 2120 3340 6640 7320 15000 26800
2026-05-04 07:30 5.41 4650 59000 (2017) 703 (2000) 6360 884 1350 1770 2120 3340 6640 7320 15000 26800
2026-05-04 06:30 5.43 4680 59000 (2017) 703 (2000) 6360 884 1350 1770 2120 3340 6640 7320 15000 26800
2026-05-04 05:30 5.44 4700 59000 (2017) 703 (2000) 6360 884 1350 1770 2120 3340 6640 7320 15000 26800
2026-05-04 04:30 5.46 4730 59000 (2017) 703 (2000) 6360 884 1350 1770 2120 3340 6640 7320 15000 26800
2026-05-04 03:30 5.48 4770 59000 (2017) 703 (2000) 6360 884 1350 1770 2120 3340 6640 7320 15000 26800
2026-05-04 02:30 5.50 4800 59000 (2017) 703 (2000) 6360 884 1350 1770 2120 3340 6640 7320 15000 26800
2026-05-04 01:30 5.52 4830 59000 (2017) 703 (2000) 6360 884 1350 1770 2120 3340 6640 7320 15000 26800
2026-05-04 00:30 5.54 4870 59000 (2017) 703 (2000) 6360 884 1350 1770 2120 3340 6640 7320 15000 26800
2026-05-03 23:30 5.56 4900 59000 (2017) 703 (2000) 6360 884 1350 1770 2120 3340 6640 7320 15000 26800
2026-05-03 22:30 5.59 4950 100000 (2017) 717 (2000) 6970 919 1320 1710 2060 3480 7270 8040 12500 30500
2026-05-03 21:30 5.60 4970 100000 (2017) 717 (2000) 6970 919 1320 1710 2060 3480 7270 8040 12500 30500
2026-05-03 20:30 5.62 5010 100000 (2017) 717 (2000) 6970 919 1320 1710 2060 3480 7270 8040 12500 30500
2026-05-03 19:30 5.64 5040 100000 (2017) 717 (2000) 6970 919 1320 1710 2060 3480 7270 8040 12500 30500
2026-05-03 18:30 5.66 5080 100000 (2017) 717 (2000) 6970 919 1320 1710 2060 3480 7270 8040 12500 30500
2026-05-03 17:30 5.69 5130 100000 (2017) 717 (2000) 6970 919 1320 1710 2060 3480 7270 8040 12500 30500
2026-05-03 16:30 5.71 5160 100000 (2017) 717 (2000) 6970 919 1320 1710 2060 3480 7270 8040 12500 30500
2026-05-03 15:30 5.74 5210 100000 (2017) 717 (2000) 6970 919 1320 1710 2060 3480 7270 8040 12500 30500
2026-05-03 14:30 5.76 5250 100000 (2017) 717 (2000) 6970 919 1320 1710 2060 3480 7270 8040 12500 30500
2026-05-03 13:30 5.80 5320 100000 (2017) 717 (2000) 6970 919 1320 1710 2060 3480 7270 8040 12500 30500
2026-05-03 12:30 5.80 5320 100000 (2017) 717 (2000) 6970 919 1320 1710 2060 3480 7270 8040 12500 30500
2026-05-03 11:30 5.84 5390 100000 (2017) 717 (2000) 6970 919 1320 1710 2060 3480 7270 8040 12500 30500
2026-05-03 10:30 5.86 5430 100000 (2017) 717 (2000) 6970 919 1320 1710 2060 3480 7270 8040 12500 30500
2026-05-03 09:30 5.87 5450 100000 (2017) 717 (2000) 6970 919 1320 1710 2060 3480 7270 8040 12500 30500
2026-05-03 08:30 5.91 5520 100000 (2017) 717 (2000) 6970 919 1320 1710 2060 3480 7270 8040 12500 30500
2026-05-03 07:30 5.92 5530 100000 (2017) 717 (2000) 6970 919 1320 1710 2060 3480 7270 8040 12500 30500
2026-05-03 06:30 5.95 5590 100000 (2017) 717 (2000) 6970 919 1320 1710 2060 3480 7270 8040 12500 30500
2026-05-03 05:30 5.97 5620 100000 (2017) 717 (2000) 6970 919 1320 1710 2060 3480 7270 8040 12500 30500
2026-05-03 04:30 6.01 5700 100000 (2017) 717 (2000) 6970 919 1320 1710 2060 3480 7270 8040 12500 30500
2026-05-03 03:30 6.03 5730 100000 (2017) 717 (2000) 6970 919 1320 1710 2060 3480 7270 8040 12500 30500
2026-05-03 02:30 6.06 5790 100000 (2017) 717 (2000) 6970 919 1320 1710 2060 3480 7270 8040 12500 30500
2026-05-03 01:30 6.09 5840 100000 (2017) 717 (2000) 6970 919 1320 1710 2060 3480 7270 8040 12500 30500
2026-05-03 00:30 6.12 5900 100000 (2017) 717 (2000) 6970 919 1320 1710 2060 3480 7270 8040 12500 30500
2026-05-02 23:30 6.15 5950 100000 (2017) 717 (2000) 6970 919 1320 1710 2060 3480 7270 8040 12500 30500
2026-05-02 22:30 6.17 5990 178000 (2017) 672 (2000) 7960 922 1340 1820 1990 3450 7140 8380 14300 23300
2026-05-02 21:30 6.21 6070 178000 (2017) 672 (2000) 7960 922 1340 1820 1990 3450 7140 8380 14300 23300
2026-05-02 20:30 6.24 6120 178000 (2017) 672 (2000) 7960 922 1340 1820 1990 3450 7140 8380 14300 23300
2026-05-02 19:30 6.28 6200 178000 (2017) 672 (2000) 7960 922 1340 1820 1990 3450 7140 8380 14300 23300
2026-05-02 18:30 6.31 6250 178000 (2017) 672 (2000) 7960 922 1340 1820 1990 3450 7140 8380 14300 23300
2026-05-02 17:30 6.36 6350 178000 (2017) 672 (2000) 7960 922 1340 1820 1990 3450 7140 8380 14300 23300
2026-05-02 16:30 6.38 6390 178000 (2017) 672 (2000) 7960 922 1340 1820 1990 3450 7140 8380 14300 23300
2026-05-02 15:30 6.42 6460 178000 (2017) 672 (2000) 7960 922 1340 1820 1990 3450 7140 8380 14300 23300
2026-05-02 14:30 6.46 6540 178000 (2017) 672 (2000) 7960 922 1340 1820 1990 3450 7140 8380 14300 23300
2026-05-02 13:30 6.50 6620 178000 (2017) 672 (2000) 7960 922 1340 1820 1990 3450 7140 8380 14300 23300
2026-05-02 12:30 6.54 6690 178000 (2017) 672 (2000) 7960 922 1340 1820 1990 3450 7140 8380 14300 23300
2026-05-02 11:30 6.58 6770 178000 (2017) 672 (2000) 7960 922 1340 1820 1990 3450 7140 8380 14300 23300
2026-05-02 10:30 6.62 6850 178000 (2017) 672 (2000) 7960 922 1340 1820 1990 3450 7140 8380 14300 23300
2026-05-02 09:30 6.67 6950 178000 (2017) 672 (2000) 7960 922 1340 1820 1990 3450 7140 8380 14300 23300
2026-05-02 08:30 6.71 7030 178000 (2017) 672 (2000) 7960 922 1340 1820 1990 3450 7140 8380 14300 23300
2026-05-02 07:30 6.75 7100 178000 (2017) 672 (2000) 7960 922 1340 1820 1990 3450 7140 8380 14300 23300
2026-05-02 06:30 6.79 7180 178000 (2017) 672 (2000) 7960 922 1340 1820 1990 3450 7140 8380 14300 23300
2026-05-02 05:30 6.84 7280 178000 (2017) 672 (2000) 7960 922 1340 1820 1990 3450 7140 8380 14300 23300
2026-05-02 04:30 6.89 7380 178000 (2017) 672 (2000) 7960 922 1340 1820 1990 3450 7140 8380 14300 23300
2026-05-02 03:30 6.93 7470 178000 (2017) 672 (2000) 7960 922 1340 1820 1990 3450 7140 8380 14300 23300
2026-05-02 02:30 6.98 7570 178000 (2017) 672 (2000) 7960 922 1340 1820 1990 3450 7140 8380 14300 23300
2026-05-02 01:30 7.03 7670 178000 (2017) 672 (2000) 7960 922 1340 1820 1990 3450 7140 8380 14300 23300
2026-05-02 00:30 7.07 7740 178000 (2017) 672 (2000) 7960 922 1340 1820 1990 3450 7140 8380 14300 23300
2026-05-01 23:30 7.12 7840 178000 (2017) 672 (2000) 7960 922 1340 1820 1990 3450 7140 8380 14300 23300
2026-05-01 22:30 7.17 7940 127000 (2017) 680 (2000) 7510 846 1230 1720 1940 3480 7270 8350 16600 25100
2026-05-01 21:30 7.21 8020 127000 (2017) 680 (2000) 7510 846 1230 1720 1940 3480 7270 8350 16600 25100
2026-05-01 20:30 7.23 8060 127000 (2017) 680 (2000) 7510 846 1230 1720 1940 3480 7270 8350 16600 25100
2026-05-01 19:30 7.26 8120 127000 (2017) 680 (2000) 7510 846 1230 1720 1940 3480 7270 8350 16600 25100
2026-05-01 18:30 7.28 8150 127000 (2017) 680 (2000) 7510 846 1230 1720 1940 3480 7270 8350 16600 25100
2026-05-01 17:30 7.29 8170 127000 (2017) 680 (2000) 7510 846 1230 1720 1940 3480 7270 8350 16600 25100
2026-05-01 16:30 7.29 8170 127000 (2017) 680 (2000) 7510 846 1230 1720 1940 3480 7270 8350 16600 25100
2026-05-01 15:30 7.28 8150 127000 (2017) 680 (2000) 7510 846 1230 1720 1940 3480 7270 8350 16600 25100
2026-05-01 14:30 7.28 8150 127000 (2017) 680 (2000) 7510 846 1230 1720 1940 3480 7270 8350 16600 25100
2026-05-01 13:30 7.24 8080 127000 (2017) 680 (2000) 7510 846 1230 1720 1940 3480 7270 8350 16600 25100
2026-05-01 12:30 7.21 8020 127000 (2017) 680 (2000) 7510 846 1230 1720 1940 3480 7270 8350 16600 25100
2026-05-01 11:30 7.17 7940 127000 (2017) 680 (2000) 7510 846 1230 1720 1940 3480 7270 8350 16600 25100
2026-05-01 10:30 7.13 7860 127000 (2017) 680 (2000) 7510 846 1230 1720 1940 3480 7270 8350 16600 25100
2026-05-01 09:30 7.10 7800 127000 (2017) 680 (2000) 7510 846 1230 1720 1940 3480 7270 8350 16600 25100
2026-05-01 08:30 7.07 7740 127000 (2017) 680 (2000) 7510 846 1230 1720 1940 3480 7270 8350 16600 25100
2026-05-01 07:30 7.04 7680 127000 (2017) 680 (2000) 7510 846 1230 1720 1940 3480 7270 8350 16600 25100
2026-05-01 06:30 7.04 7680 127000 (2017) 680 (2000) 7510 846 1230 1720 1940 3480 7270 8350 16600 25100
2026-05-01 05:30 7.06 7720 127000 (2017) 680 (2000) 7510 846 1230 1720 1940 3480 7270 8350 16600 25100
2026-05-01 04:30 7.09 7780 127000 (2017) 680 (2000) 7510 846 1230 1720 1940 3480 7270 8350 16600 25100
2026-05-01 03:30 7.14 7880 127000 (2017) 680 (2000) 7510 846 1230 1720 1940 3480 7270 8350 16600 25100
2026-05-01 02:30 7.19 7980 127000 (2017) 680 (2000) 7510 846 1230 1720 1940 3480 7270 8350 16600 25100
2026-05-01 01:30 7.25 8100 127000 (2017) 680 (2000) 7510 846 1230 1720 1940 3480 7270 8350 16600 25100
2026-05-01 00:30 7.32 8230 127000 (2017) 680 (2000) 7510 846 1230 1720 1940 3480 7270 8350 16600 25100
2026-04-30 23:30 7.38 8350 127000 (2017) 680 (2000) 7510 846 1230 1720 1940 3480 7270 8350 16600 25100
2026-04-30 22:30 7.46 8510 55700 (2017) 540 (1956) 6620 855 1140 1790 2020 3370 5770 7250 19000 29400
2026-04-30 21:30 7.53 8660 55700 (2017) 540 (1956) 6620 855 1140 1790 2020 3370 5770 7250 19000 29400
2026-04-30 20:30 7.61 8820 55700 (2017) 540 (1956) 6620 855 1140 1790 2020 3370 5770 7250 19000 29400
2026-04-30 19:30 7.67 8940 55700 (2017) 540 (1956) 6620 855 1140 1790 2020 3370 5770 7250 19000 29400
2026-04-30 18:30 7.72 9040 55700 (2017) 540 (1956) 6620 855 1140 1790 2020 3370 5770 7250 19000 29400
2026-04-30 17:30 7.75 9110 55700 (2017) 540 (1956) 6620 855 1140 1790 2020 3370 5770 7250 19000 29400
2026-04-30 16:30 7.76 9130 55700 (2017) 540 (1956) 6620 855 1140 1790 2020 3370 5770 7250 19000 29400
2026-04-30 15:30 7.75 9110 55700 (2017) 540 (1956) 6620 855 1140 1790 2020 3370 5770 7250 19000 29400
2026-04-30 14:30 7.71 9020 55700 (2017) 540 (1956) 6620 855 1140 1790 2020 3370 5770 7250 19000 29400
2026-04-30 13:30 7.62 8840 55700 (2017) 540 (1956) 6620 855 1140 1790 2020 3370 5770 7250 19000 29400
2026-04-30 12:30 7.51 8620 55700 (2017) 540 (1956) 6620 855 1140 1790 2020 3370 5770 7250 19000 29400
2026-04-30 11:30 7.39 8370 55700 (2017) 540 (1956) 6620 855 1140 1790 2020 3370 5770 7250 19000 29400
2026-04-30 10:30 7.26 8120 55700 (2017) 540 (1956) 6620 855 1140 1790 2020 3370 5770 7250 19000 29400
2026-04-30 09:30 7.13 7860 55700 (2017) 540 (1956) 6620 855 1140 1790 2020 3370 5770 7250 19000 29400
2026-04-30 08:30 7.03 7670 55700 (2017) 540 (1956) 6620 855 1140 1790 2020 3370 5770 7250 19000 29400
2026-04-30 07:30 6.98 7570 55700 (2017) 540 (1956) 6620 855 1140 1790 2020 3370 5770 7250 19000 29400
2026-04-30 06:30 6.95 7510 55700 (2017) 540 (1956) 6620 855 1140 1790 2020 3370 5770 7250 19000 29400
2026-04-30 05:30 6.96 7530 55700 (2017) 540 (1956) 6620 855 1140 1790 2020 3370 5770 7250 19000 29400
2026-04-30 04:30 6.98 7570 55700 (2017) 540 (1956) 6620 855 1140 1790 2020 3370 5770 7250 19000 29400
2026-04-30 03:30 7.00 7610 55700 (2017) 540 (1956) 6620 855 1140 1790 2020 3370 5770 7250 19000 29400
2026-04-30 02:30 7.03 7670 55700 (2017) 540 (1956) 6620 855 1140 1790 2020 3370 5770 7250 19000 29400
2026-04-30 01:30 7.07 7740 55700 (2017) 540 (1956) 6620 855 1140 1790 2020 3370 5770 7250 19000 29400
2026-04-30 00:30 7.10 7800 55700 (2017) 540 (1956) 6620 855 1140 1790 2020 3370 5770 7250 19000 29400
2026-04-29 23:30 7.14 7880 55700 (2017) 540 (1956) 6620 855 1140 1790 2020 3370 5770 7250 19000 29400
2026-04-29 22:30 7.17 7940 74800 (2011) 536 (1956) 6710 878 1140 1730 1980 3270 5940 7370 20700 26900
2026-04-29 21:30 7.21 8020 74800 (2011) 536 (1956) 6710 878 1140 1730 1980 3270 5940 7370 20700 26900
2026-04-29 20:30 7.24 8080 74800 (2011) 536 (1956) 6710 878 1140 1730 1980 3270 5940 7370 20700 26900
2026-04-29 19:30 7.28 8150 74800 (2011) 536 (1956) 6710 878 1140 1730 1980 3270 5940 7370 20700 26900
2026-04-29 18:30 7.29 8170 74800 (2011) 536 (1956) 6710 878 1140 1730 1980 3270 5940 7370 20700 26900
2026-04-29 17:30 7.30 8190 74800 (2011) 536 (1956) 6710 878 1140 1730 1980 3270 5940 7370 20700 26900
2026-04-29 16:30 7.31 8210 74800 (2011) 536 (1956) 6710 878 1140 1730 1980 3270 5940 7370 20700 26900
2026-04-29 15:30 7.32 8230 74800 (2011) 536 (1956) 6710 878 1140 1730 1980 3270 5940 7370 20700 26900
2026-04-29 14:30 7.31 8210 74800 (2011) 536 (1956) 6710 878 1140 1730 1980 3270 5940 7370 20700 26900
2026-04-29 13:30 7.29 8170 74800 (2011) 536 (1956) 6710 878 1140 1730 1980 3270 5940 7370 20700 26900
2026-04-29 12:30 7.26 8120 74800 (2011) 536 (1956) 6710 878 1140 1730 1980 3270 5940 7370 20700 26900
2026-04-29 11:30 7.25 8100 74800 (2011) 536 (1956) 6710 878 1140 1730 1980 3270 5940 7370 20700 26900
2026-04-29 10:30 7.20 8000 74800 (2011) 536 (1956) 6710 878 1140 1730 1980 3270 5940 7370 20700 26900
2026-04-29 09:30 7.17 7940 74800 (2011) 536 (1956) 6710 878 1140 1730 1980 3270 5940 7370 20700 26900
2026-04-29 08:30 7.15 7900 74800 (2011) 536 (1956) 6710 878 1140 1730 1980 3270 5940 7370 20700 26900
2026-04-29 07:30 7.15 7900 74800 (2011) 536 (1956) 6710 878 1140 1730 1980 3270 5940 7370 20700 26900
2026-04-29 06:30 7.17 7940 74800 (2011) 536 (1956) 6710 878 1140 1730 1980 3270 5940 7370 20700 26900
2026-04-29 05:30 7.22 8040 74800 (2011) 536 (1956) 6710 878 1140 1730 1980 3270 5940 7370 20700 26900
2026-04-29 04:30 7.28 8150 74800 (2011) 536 (1956) 6710 878 1140 1730 1980 3270 5940 7370 20700 26900
2026-04-29 03:30 7.37 8330 74800 (2011) 536 (1956) 6710 878 1140 1730 1980 3270 5940 7370 20700 26900
2026-04-29 02:30 7.46 8510 74800 (2011) 536 (1956) 6710 878 1140 1730 1980 3270 5940 7370 20700 26900
2026-04-29 01:30 7.60 8800 74800 (2011) 536 (1956) 6710 878 1140 1730 1980 3270 5940 7370 20700 26900
2026-04-29 00:30 7.73 9070 74800 (2011) 536 (1956) 6710 878 1140 1730 1980 3270 5940 7370 20700 26900
2026-04-28 23:30 7.86 9340 74800 (2011) 536 (1956) 6710 878 1140 1730 1980 3270 5940 7370 20700 26900
2026-04-28 22:30 7.98 9590 83600 (2011) 545 (1956) 6560 904 1080 1790 1920 3490 6040 7140 14800 19100
2026-04-28 21:30 8.04 9710 83600 (2011) 545 (1956) 6560 904 1080 1790 1920 3490 6040 7140 14800 19100
2026-04-28 20:30 8.11 9860 83600 (2011) 545 (1956) 6560 904 1080 1790 1920 3490 6040 7140 14800 19100
2026-04-28 19:30 8.22 10100 83600 (2011) 545 (1956) 6560 904 1080 1790 1920 3490 6040 7140 14800 19100
2026-04-28 18:30 8.33 10300 83600 (2011) 545 (1956) 6560 904 1080 1790 1920 3490 6040 7140 14800 19100
2026-04-28 17:30 8.45 10500 83600 (2011) 545 (1956) 6560 904 1080 1790 1920 3490 6040 7140 14800 19100
2026-04-28 16:30 8.59 10800 83600 (2011) 545 (1956) 6560 904 1080 1790 1920 3490 6040 7140 14800 19100
2026-04-28 15:30 8.70 11000 83600 (2011) 545 (1956) 6560 904 1080 1790 1920 3490 6040 7140 14800 19100
2026-04-28 14:30 8.80 11200 83600 (2011) 545 (1956) 6560 904 1080 1790 1920 3490 6040 7140 14800 19100
2026-04-28 13:30 8.88 11400 83600 (2011) 545 (1956) 6560 904 1080 1790 1920 3490 6040 7140 14800 19100
2026-04-28 12:30 8.95 11500 83600 (2011) 545 (1956) 6560 904 1080 1790 1920 3490 6040 7140 14800 19100
2026-04-28 11:30 9.03 11700 83600 (2011) 545 (1956) 6560 904 1080 1790 1920 3490 6040 7140 14800 19100
2026-04-28 10:30 9.08 11800 83600 (2011) 545 (1956) 6560 904 1080 1790 1920 3490 6040 7140 14800 19100
2026-04-28 09:30 9.11 11900 83600 (2011) 545 (1956) 6560 904 1080 1790 1920 3490 6040 7140 14800 19100
2026-04-28 08:30 9.14 11900 83600 (2011) 545 (1956) 6560 904 1080 1790 1920 3490 6040 7140 14800 19100
2026-04-28 07:30 9.19 12000 83600 (2011) 545 (1956) 6560 904 1080 1790 1920 3490 6040 7140 14800 19100
2026-04-28 06:30 9.24 12100 83600 (2011) 545 (1956) 6560 904 1080 1790 1920 3490 6040 7140 14800 19100
2026-04-28 05:30 9.30 12300 83600 (2011) 545 (1956) 6560 904 1080 1790 1920 3490 6040 7140 14800 19100
2026-04-28 04:30 9.39 12500 83600 (2011) 545 (1956) 6560 904 1080 1790 1920 3490 6040 7140 14800 19100
2026-04-28 03:30 9.48 12600 83600 (2011) 545 (1956) 6560 904 1080 1790 1920 3490 6040 7140 14800 19100
2026-04-28 02:30 9.58 12900 83600 (2011) 545 (1956) 6560 904 1080 1790 1920 3490 6040 7140 14800 19100
2026-04-28 01:30 9.68 13100 83600 (2011) 545 (1956) 6560 904 1080 1790 1920 3490 6040 7140 14800 19100
2026-04-28 00:30 9.76 13200 83600 (2011) 545 (1956) 6560 904 1080 1790 1920 3490 6040 7140 14800 19100
2026-04-27 23:30 9.78 13300 83600 (2011) 545 (1956) 6560 904 1080 1790 1920 3490 6040 7140 14800 19100
2026-04-27 22:30 9.78 13300 57900 (2011) 576 (1956) 5830 910 1150 1830 1970 3720 5370 6910 9750 19600
2026-04-27 21:30 9.72 13100 57900 (2011) 576 (1956) 5830 910 1150 1830 1970 3720 5370 6910 9750 19600
2026-04-27 20:30 9.60 12900 57900 (2011) 576 (1956) 5830 910 1150 1830 1970 3720 5370 6910 9750 19600
2026-04-27 19:30 9.42 12500 57900 (2011) 576 (1956) 5830 910 1150 1830 1970 3720 5370 6910 9750 19600
2026-04-27 18:30 9.18 12000 57900 (2011) 576 (1956) 5830 910 1150 1830 1970 3720 5370 6910 9750 19600
2026-04-27 17:30 8.94 11500 57900 (2011) 576 (1956) 5830 910 1150 1830 1970 3720 5370 6910 9750 19600
2026-04-27 16:30 8.69 11000 57900 (2011) 576 (1956) 5830 910 1150 1830 1970 3720 5370 6910 9750 19600
2026-04-27 15:30 8.45 10500 57900 (2011) 576 (1956) 5830 910 1150 1830 1970 3720 5370 6910 9750 19600
2026-04-27 14:30 8.26 10200 57900 (2011) 576 (1956) 5830 910 1150 1830 1970 3720 5370 6910 9750 19600
2026-04-27 13:30 8.15 9940 57900 (2011) 576 (1956) 5830 910 1150 1830 1970 3720 5370 6910 9750 19600
2026-04-27 12:30 8.13 9900 57900 (2011) 576 (1956) 5830 910 1150 1830 1970 3720 5370 6910 9750 19600
2026-04-27 11:30 8.17 9980 57900 (2011) 576 (1956) 5830 910 1150 1830 1970 3720 5370 6910 9750 19600
2026-04-27 10:30 8.28 10200 57900 (2011) 576 (1956) 5830 910 1150 1830 1970 3720 5370 6910 9750 19600
2026-04-27 09:30 8.44 10500 57900 (2011) 576 (1956) 5830 910 1150 1830 1970 3720 5370 6910 9750 19600
2026-04-27 08:30 8.59 10800 57900 (2011) 576 (1956) 5830 910 1150 1830 1970 3720 5370 6910 9750 19600
2026-04-27 07:30 8.72 11100 57900 (2011) 576 (1956) 5830 910 1150 1830 1970 3720 5370 6910 9750 19600
2026-04-27 06:30 8.81 11300 57900 (2011) 576 (1956) 5830 910 1150 1830 1970 3720 5370 6910 9750 19600
2026-04-27 05:30 8.76 11200 57900 (2011) 576 (1956) 5830 910 1150 1830 1970 3720 5370 6910 9750 19600
2026-04-27 04:30 8.61 10800 57900 (2011) 576 (1956) 5830 910 1150 1830 1970 3720 5370 6910 9750 19600
2026-04-27 03:30 8.31 10300 57900 (2011) 576 (1956) 5830 910 1150 1830 1970 3720 5370 6910 9750 19600
2026-04-27 02:30 7.84 9290 57900 (2011) 576 (1956) 5830 910 1150 1830 1970 3720 5370 6910 9750 19600
2026-04-27 01:30 7.22 8040 57900 (2011) 576 (1956) 5830 910 1150 1830 1970 3720 5370 6910 9750 19600
2026-04-27 00:30 6.93 7470 57900 (2011) 576 (1956) 5830 910 1150 1830 1970 3720 5370 6910 9750 19600
2026-04-26 23:30 6.86 7320 57900 (2011) 576 (1956) 5830 910 1150 1830 1970 3720 5370 6910 9750 19600
2026-04-26 22:30 6.82 7240 39400 (1947) 587 (1956) 5370 913 1120 1790 1990 3370 5500 6510 10500 18200
2026-04-26 21:30 6.80 7200 39400 (1947) 587 (1956) 5370 913 1120 1790 1990 3370 5500 6510 10500 18200
2026-04-26 20:30 6.81 7220 39400 (1947) 587 (1956) 5370 913 1120 1790 1990 3370 5500 6510 10500 18200
2026-04-26 19:30 6.83 7260 39400 (1947) 587 (1956) 5370 913 1120 1790 1990 3370 5500 6510 10500 18200
2026-04-26 18:30 6.85 7300 39400 (1947) 587 (1956) 5370 913 1120 1790 1990 3370 5500 6510 10500 18200
2026-04-26 17:30 6.86 7320 39400 (1947) 587 (1956) 5370 913 1120 1790 1990 3370 5500 6510 10500 18200
2026-04-26 16:30 6.88 7360 39400 (1947) 587 (1956) 5370 913 1120 1790 1990 3370 5500 6510 10500 18200
2026-04-26 15:30 6.89 7380 39400 (1947) 587 (1956) 5370 913 1120 1790 1990 3370 5500 6510 10500 18200
2026-04-26 14:30 6.89 7380 39400 (1947) 587 (1956) 5370 913 1120 1790 1990 3370 5500 6510 10500 18200
2026-04-26 13:30 6.88 7360 39400 (1947) 587 (1956) 5370 913 1120 1790 1990 3370 5500 6510 10500 18200
2026-04-26 12:30 6.86 7320 39400 (1947) 587 (1956) 5370 913 1120 1790 1990 3370 5500 6510 10500 18200
2026-04-26 11:30 6.82 7240 39400 (1947) 587 (1956) 5370 913 1120 1790 1990 3370 5500 6510 10500 18200
2026-04-26 10:30 6.75 7100 39400 (1947) 587 (1956) 5370 913 1120 1790 1990 3370 5500 6510 10500 18200
2026-04-26 09:30 6.66 6930 39400 (1947) 587 (1956) 5370 913 1120 1790 1990 3370 5500 6510 10500 18200
2026-04-26 08:30 6.56 6730 39400 (1947) 587 (1956) 5370 913 1120 1790 1990 3370 5500 6510 10500 18200
2026-04-26 07:30 6.43 6480 39400 (1947) 587 (1956) 5370 913 1120 1790 1990 3370 5500 6510 10500 18200
2026-04-26 06:30 6.29 6220 39400 (1947) 587 (1956) 5370 913 1120 1790 1990 3370 5500 6510 10500 18200
2026-04-26 05:30 6.16 5970 39400 (1947) 587 (1956) 5370 913 1120 1790 1990 3370 5500 6510 10500 18200
2026-04-26 04:30 6.03 5730 39400 (1947) 587 (1956) 5370 913 1120 1790 1990 3370 5500 6510 10500 18200
2026-04-26 03:30 5.94 5570 39400 (1947) 587 (1956) 5370 913 1120 1790 1990 3370 5500 6510 10500 18200
2026-04-26 02:30 5.87 5450 39400 (1947) 587 (1956) 5370 913 1120 1790 1990 3370 5500 6510 10500 18200
2026-04-26 01:30 5.81 5340 39400 (1947) 587 (1956) 5370 913 1120 1790 1990 3370 5500 6510 10500 18200
2026-04-26 00:30 5.77 5270 39400 (1947) 587 (1956) 5370 913 1120 1790 1990 3370 5500 6510 10500 18200
2026-04-25 23:30 5.75 5230 39400 (1947) 587 (1956) 5370 913 1120 1790 1990 3370 5500 6510 10500 18200
2026-04-25 22:30 5.73 5200 27200 (1947) 592 (1956) 5250 940 1110 1780 2100 3480 5980 6820 11000 23600
2026-04-25 21:30 5.72 5180 27200 (1947) 592 (1956) 5250 940 1110 1780 2100 3480 5980 6820 11000 23600
2026-04-25 20:30 5.72 5180 27200 (1947) 592 (1956) 5250 940 1110 1780 2100 3480 5980 6820 11000 23600
2026-04-25 19:30 5.72 5180 27200 (1947) 592 (1956) 5250 940 1110 1780 2100 3480 5980 6820 11000 23600
2026-04-25 18:30 5.72 5180 27200 (1947) 592 (1956) 5250 940 1110 1780 2100 3480 5980 6820 11000 23600
2026-04-25 17:30 5.72 5180 27200 (1947) 592 (1956) 5250 940 1110 1780 2100 3480 5980 6820 11000 23600
2026-04-25 16:30 5.73 5200 27200 (1947) 592 (1956) 5250 940 1110 1780 2100 3480 5980 6820 11000 23600
2026-04-25 15:30 5.74 5210 27200 (1947) 592 (1956) 5250 940 1110 1780 2100 3480 5980 6820 11000 23600
2026-04-25 14:30 5.75 5230 27200 (1947) 592 (1956) 5250 940 1110 1780 2100 3480 5980 6820 11000 23600
2026-04-25 13:30 5.76 5250 27200 (1947) 592 (1956) 5250 940 1110 1780 2100 3480 5980 6820 11000 23600
2026-04-25 12:30 5.78 5290 27200 (1947) 592 (1956) 5250 940 1110 1780 2100 3480 5980 6820 11000 23600
2026-04-25 11:30 5.78 5290 27200 (1947) 592 (1956) 5250 940 1110 1780 2100 3480 5980 6820 11000 23600
2026-04-25 10:30 5.79 5300 27200 (1947) 592 (1956) 5250 940 1110 1780 2100 3480 5980 6820 11000 23600
2026-04-25 09:30 5.79 5300 27200 (1947) 592 (1956) 5250 940 1110 1780 2100 3480 5980 6820 11000 23600
2026-04-25 08:30 5.79 5300 27200 (1947) 592 (1956) 5250 940 1110 1780 2100 3480 5980 6820 11000 23600
2026-04-25 07:30 5.78 5290 27200 (1947) 592 (1956) 5250 940 1110 1780 2100 3480 5980 6820 11000 23600
2026-04-25 06:30 5.76 5250 27200 (1947) 592 (1956) 5250 940 1110 1780 2100 3480 5980 6820 11000 23600
2026-04-25 05:30 5.75 5230 27200 (1947) 592 (1956) 5250 940 1110 1780 2100 3480 5980 6820 11000 23600
2026-04-25 04:30 5.73 5200 27200 (1947) 592 (1956) 5250 940 1110 1780 2100 3480 5980 6820 11000 23600
2026-04-25 03:30 5.70 5140 27200 (1947) 592 (1956) 5250 940 1110 1780 2100 3480 5980 6820 11000 23600
2026-04-25 02:30 5.68 5110 27200 (1947) 592 (1956) 5250 940 1110 1780 2100 3480 5980 6820 11000 23600
2026-04-25 01:30 5.66 5080 27200 (1947) 592 (1956) 5250 940 1110 1780 2100 3480 5980 6820 11000 23600
2026-04-25 00:30 5.64 5040 27200 (1947) 592 (1956) 5250 940 1110 1780 2100 3480 5980 6820 11000 23600
2026-04-24 23:30 5.64 5040 27200 (1947) 592 (1956) 5250 940 1110 1780 2100 3480 5980 6820 11000 23600
2026-04-24 22:30 5.63 5020 23100 (1928) 603 (1956) 4960 951 1150 1710 2130 3150 6600 7440 10200 13100
2026-04-24 21:30 5.63 5020 23100 (1928) 603 (1956) 4960 951 1150 1710 2130 3150 6600 7440 10200 13100
2026-04-24 20:30 5.63 5020 23100 (1928) 603 (1956) 4960 951 1150 1710 2130 3150 6600 7440 10200 13100
2026-04-24 19:30 5.64 5040 23100 (1928) 603 (1956) 4960 951 1150 1710 2130 3150 6600 7440 10200 13100
2026-04-24 18:30 5.64 5040 23100 (1928) 603 (1956) 4960 951 1150 1710 2130 3150 6600 7440 10200 13100
2026-04-24 17:30 5.65 5060 23100 (1928) 603 (1956) 4960 951 1150 1710 2130 3150 6600 7440 10200 13100
2026-04-24 16:30 5.66 5080 23100 (1928) 603 (1956) 4960 951 1150 1710 2130 3150 6600 7440 10200 13100
2026-04-24 15:30 5.68 5110 23100 (1928) 603 (1956) 4960 951 1150 1710 2130 3150 6600 7440 10200 13100
2026-04-24 14:30 5.68 5110 23100 (1928) 603 (1956) 4960 951 1150 1710 2130 3150 6600 7440 10200 13100
2026-04-24 13:30 5.71 5160 23100 (1928) 603 (1956) 4960 951 1150 1710 2130 3150 6600 7440 10200 13100
2026-04-24 12:30 5.72 5180 23100 (1928) 603 (1956) 4960 951 1150 1710 2130 3150 6600 7440 10200 13100
2026-04-24 11:30 5.74 5210 23100 (1928) 603 (1956) 4960 951 1150 1710 2130 3150 6600 7440 10200 13100
2026-04-24 10:30 5.75 5230 23100 (1928) 603 (1956) 4960 951 1150 1710 2130 3150 6600 7440 10200 13100
2026-04-24 09:30 5.77 5270 23100 (1928) 603 (1956) 4960 951 1150 1710 2130 3150 6600 7440 10200 13100
2026-04-24 08:30 5.78 5290 23100 (1928) 603 (1956) 4960 951 1150 1710 2130 3150 6600 7440 10200 13100
2026-04-24 07:30 5.80 5320 23100 (1928) 603 (1956) 4960 951 1150 1710 2130 3150 6600 7440 10200 13100
2026-04-24 06:30 5.82 5360 23100 (1928) 603 (1956) 4960 951 1150 1710 2130 3150 6600 7440 10200 13100
2026-04-24 05:30 5.84 5390 23100 (1928) 603 (1956) 4960 951 1150 1710 2130 3150 6600 7440 10200 13100
2026-04-24 04:30 5.85 5410 23100 (1928) 603 (1956) 4960 951 1150 1710 2130 3150 6600 7440 10200 13100
2026-04-24 03:30 5.87 5450 23100 (1928) 603 (1956) 4960 951 1150 1710 2130 3150 6600 7440 10200 13100
2026-04-24 02:30 5.89 5480 23100 (1928) 603 (1956) 4960 951 1150 1710 2130 3150 6600 7440 10200 13100
2026-04-24 01:30 5.91 5520 23100 (1928) 603 (1956) 4960 951 1150 1710 2130 3150 6600 7440 10200 13100
2026-04-24 00:30 5.93 5550 23100 (1928) 603 (1956) 4960 951 1150 1710 2130 3150 6600 7440 10200 13100
2026-04-23 23:30 5.95 5590 23100 (1928) 603 (1956) 4960 951 1150 1710 2130 3150 6600 7440 10200 13100
2026-04-23 22:30 5.98 5640 30900 (1941) 598 (1956) 5050 976 1200 1710 2060 3280 6190 7730 10600 15000
2026-04-23 21:30 6.01 5700 30900 (1941) 598 (1956) 5050 976 1200 1710 2060 3280 6190 7730 10600 15000
2026-04-23 20:30 6.03 5730 30900 (1941) 598 (1956) 5050 976 1200 1710 2060 3280 6190 7730 10600 15000
2026-04-23 19:30 6.07 5810 30900 (1941) 598 (1956) 5050 976 1200 1710 2060 3280 6190 7730 10600 15000
2026-04-23 18:30 6.09 5840 30900 (1941) 598 (1956) 5050 976 1200 1710 2060 3280 6190 7730 10600 15000
2026-04-23 17:30 6.12 5900 30900 (1941) 598 (1956) 5050 976 1200 1710 2060 3280 6190 7730 10600 15000
2026-04-23 16:30 6.15 5950 30900 (1941) 598 (1956) 5050 976 1200 1710 2060 3280 6190 7730 10600 15000
2026-04-23 15:30 6.18 6010 30900 (1941) 598 (1956) 5050 976 1200 1710 2060 3280 6190 7730 10600 15000
2026-04-23 14:30 6.20 6050 30900 (1941) 598 (1956) 5050 976 1200 1710 2060 3280 6190 7730 10600 15000
2026-04-23 13:30 6.24 6120 30900 (1941) 598 (1956) 5050 976 1200 1710 2060 3280 6190 7730 10600 15000
2026-04-23 12:30 6.26 6160 30900 (1941) 598 (1956) 5050 976 1200 1710 2060 3280 6190 7730 10600 15000
2026-04-23 11:30 6.29 6220 30900 (1941) 598 (1956) 5050 976 1200 1710 2060 3280 6190 7730 10600 15000
2026-04-23 10:30 6.32 6270 30900 (1941) 598 (1956) 5050 976 1200 1710 2060 3280 6190 7730 10600 15000
2026-04-23 09:30 6.34 6310 30900 (1941) 598 (1956) 5050 976 1200 1710 2060 3280 6190 7730 10600 15000
2026-04-23 08:30 6.37 6370 30900 (1941) 598 (1956) 5050 976 1200 1710 2060 3280 6190 7730 10600 15000
2026-04-23 07:30 6.40 6420 30900 (1941) 598 (1956) 5050 976 1200 1710 2060 3280 6190 7730 10600 15000
2026-04-23 06:30 6.44 6500 30900 (1941) 598 (1956) 5050 976 1200 1710 2060 3280 6190 7730 10600 15000
2026-04-23 05:30 6.46 6540 30900 (1941) 598 (1956) 5050 976 1200 1710 2060 3280 6190 7730 10600 15000
2026-04-23 04:30 6.50 6620 30900 (1941) 598 (1956) 5050 976 1200 1710 2060 3280 6190 7730 10600 15000
2026-04-23 03:30 6.53 6670 30900 (1941) 598 (1956) 5050 976 1200 1710 2060 3280 6190 7730 10600 15000
2026-04-23 02:30 6.57 6750 30900 (1941) 598 (1956) 5050 976 1200 1710 2060 3280 6190 7730 10600 15000
2026-04-23 01:30 6.61 6830 30900 (1941) 598 (1956) 5050 976 1200 1710 2060 3280 6190 7730 10600 15000
2026-04-23 00:30 6.65 6910 30900 (1941) 598 (1956) 5050 976 1200 1710 2060 3280 6190 7730 10600 15000
2026-04-22 23:30 6.69 6990 30900 (1941) 598 (1956) 5050 976 1200 1710 2060 3280 6190 7730 10600 15000
2026-04-22 22:30 6.73 7070 48900 (1941) 576 (1956) 5560 955 1170 1770 2070 3260 6620 7710 12100 16500
2026-04-22 21:30 6.76 7120 48900 (1941) 576 (1956) 5560 955 1170 1770 2070 3260 6620 7710 12100 16500
2026-04-22 20:30 6.82 7240 48900 (1941) 576 (1956) 5560 955 1170 1770 2070 3260 6620 7710 12100 16500
2026-04-22 19:30 6.86 7320 48900 (1941) 576 (1956) 5560 955 1170 1770 2070 3260 6620 7710 12100 16500
2026-04-22 18:30 6.90 7400 48900 (1941) 576 (1956) 5560 955 1170 1770 2070 3260 6620 7710 12100 16500
2026-04-22 17:30 6.95 7510 48900 (1941) 576 (1956) 5560 955 1170 1770 2070 3260 6620 7710 12100 16500
2026-04-22 16:30 7.00 7610 48900 (1941) 576 (1956) 5560 955 1170 1770 2070 3260 6620 7710 12100 16500
2026-04-22 15:30 7.04 7680 48900 (1941) 576 (1956) 5560 955 1170 1770 2070 3260 6620 7710 12100 16500
2026-04-22 14:30 7.09 7780 48900 (1941) 576 (1956) 5560 955 1170 1770 2070 3260 6620 7710 12100 16500
2026-04-22 13:30 7.14 7880 48900 (1941) 576 (1956) 5560 955 1170 1770 2070 3260 6620 7710 12100 16500
2026-04-22 12:30 7.19 7980 48900 (1941) 576 (1956) 5560 955 1170 1770 2070 3260 6620 7710 12100 16500
2026-04-22 11:30 7.24 8080 48900 (1941) 576 (1956) 5560 955 1170 1770 2070 3260 6620 7710 12100 16500
2026-04-22 10:30 7.30 8190 48900 (1941) 576 (1956) 5560 955 1170 1770 2070 3260 6620 7710 12100 16500
2026-04-22 09:30 7.35 8290 48900 (1941) 576 (1956) 5560 955 1170 1770 2070 3260 6620 7710 12100 16500
2026-04-22 08:30 7.41 8410 48900 (1941) 576 (1956) 5560 955 1170 1770 2070 3260 6620 7710 12100 16500
2026-04-22 07:30 7.47 8530 48900 (1941) 576 (1956) 5560 955 1170 1770 2070 3260 6620 7710 12100 16500
2026-04-22 06:30 7.54 8680 48900 (1941) 576 (1956) 5560 955 1170 1770 2070 3260 6620 7710 12100 16500
2026-04-22 05:30 7.60 8800 48900 (1941) 576 (1956) 5560 955 1170 1770 2070 3260 6620 7710 12100 16500
2026-04-22 04:30 7.68 8960 48900 (1941) 576 (1956) 5560 955 1170 1770 2070 3260 6620 7710 12100 16500
2026-04-22 03:30 7.76 9130 48900 (1941) 576 (1956) 5560 955 1170 1770 2070 3260 6620 7710 12100 16500
2026-04-22 02:30 7.83 9270 48900 (1941) 576 (1956) 5560 955 1170 1770 2070 3260 6620 7710 12100 16500
2026-04-22 01:30 7.92 9460 48900 (1941) 576 (1956) 5560 955 1170 1770 2070 3260 6620 7710 12100 16500
2026-04-22 00:30 8.00 9630 48900 (1941) 576 (1956) 5560 955 1170 1770 2070 3260 6620 7710 12100 16500
2026-04-21 23:30 8.11 9860 48900 (1941) 576 (1956) 5560 955 1170 1770 2070 3260 6620 7710 12100 16500
2026-04-21 22:30 8.21 10100 42800 (1941) 561 (1956) 5780 898 1200 1770 2090 3090 6670 7900 14200 22900
2026-04-21 21:30 8.32 10300 42800 (1941) 561 (1956) 5780 898 1200 1770 2090 3090 6670 7900 14200 22900
2026-04-21 20:30 8.45 10500 42800 (1941) 561 (1956) 5780 898 1200 1770 2090 3090 6670 7900 14200 22900
2026-04-21 19:30 8.56 10700 42800 (1941) 561 (1956) 5780 898 1200 1770 2090 3090 6670 7900 14200 22900
2026-04-21 18:30 8.71 11000 42800 (1941) 561 (1956) 5780 898 1200 1770 2090 3090 6670 7900 14200 22900
2026-04-21 17:30 8.87 11400 42800 (1941) 561 (1956) 5780 898 1200 1770 2090 3090 6670 7900 14200 22900
2026-04-21 16:30 9.02 11700 42800 (1941) 561 (1956) 5780 898 1200 1770 2090 3090 6670 7900 14200 22900
2026-04-21 15:30 9.18 12000 42800 (1941) 561 (1956) 5780 898 1200 1770 2090 3090 6670 7900 14200 22900
2026-04-21 14:30 9.38 12400 42800 (1941) 561 (1956) 5780 898 1200 1770 2090 3090 6670 7900 14200 22900
2026-04-21 13:30 9.55 12800 42800 (1941) 561 (1956) 5780 898 1200 1770 2090 3090 6670 7900 14200 22900
2026-04-21 12:30 9.76 13200 42800 (1941) 561 (1956) 5780 898 1200 1770 2090 3090 6670 7900 14200 22900
2026-04-21 11:30 9.94 13600 42800 (1941) 561 (1956) 5780 898 1200 1770 2090 3090 6670 7900 14200 22900
2026-04-21 10:30 10.16 14100 42800 (1941) 561 (1956) 5780 898 1200 1770 2090 3090 6670 7900 14200 22900
2026-04-21 09:30 10.35 14500 42800 (1941) 561 (1956) 5780 898 1200 1770 2090 3090 6670 7900 14200 22900
2026-04-21 08:30 10.53 14900 42800 (1941) 561 (1956) 5780 898 1200 1770 2090 3090 6670 7900 14200 22900
2026-04-21 07:30 10.70 15300 42800 (1941) 561 (1956) 5780 898 1200 1770 2090 3090 6670 7900 14200 22900
2026-04-21 06:30 10.86 15700 42800 (1941) 561 (1956) 5780 898 1200 1770 2090 3090 6670 7900 14200 22900
2026-04-21 05:30 11.01 16000 42800 (1941) 561 (1956) 5780 898 1200 1770 2090 3090 6670 7900 14200 22900
2026-04-21 04:30 11.15 16300 42800 (1941) 561 (1956) 5780 898 1200 1770 2090 3090 6670 7900 14200 22900
2026-04-21 03:30 11.26 16600 42800 (1941) 561 (1956) 5780 898 1200 1770 2090 3090 6670 7900 14200 22900
2026-04-21 02:30 11.37 16800 42800 (1941) 561 (1956) 5780 898 1200 1770 2090 3090 6670 7900 14200 22900
2026-04-21 01:30 11.45 17000 42800 (1941) 561 (1956) 5780 898 1200 1770 2090 3090 6670 7900 14200 22900
2026-04-21 00:30 11.55 17300 42800 (1941) 561 (1956) 5780 898 1200 1770 2090 3090 6670 7900 14200 22900
2026-04-20 23:30 11.60 17400 42800 (1941) 561 (1956) 5780 898 1200 1770 2090 3090 6670 7900 14200 22900
2026-04-20 22:30 11.66 17500 41300 (1941) 555 (1956) 5890 930 1250 1850 2130 3150 6430 8740 15600 20200
2026-04-20 21:30 11.71 17600 41300 (1941) 555 (1956) 5890 930 1250 1850 2130 3150 6430 8740 15600 20200
2026-04-20 20:30 11.74 17700 41300 (1941) 555 (1956) 5890 930 1250 1850 2130 3150 6430 8740 15600 20200
2026-04-20 19:30 11.78 17800 41300 (1941) 555 (1956) 5890 930 1250 1850 2130 3150 6430 8740 15600 20200
2026-04-20 18:30 11.84 17900 41300 (1941) 555 (1956) 5890 930 1250 1850 2130 3150 6430 8740 15600 20200
2026-04-20 17:30 11.86 18000 41300 (1941) 555 (1956) 5890 930 1250 1850 2130 3150 6430 8740 15600 20200
2026-04-20 16:30 11.92 18100 41300 (1941) 555 (1956) 5890 930 1250 1850 2130 3150 6430 8740 15600 20200
2026-04-20 15:30 11.95 18200 41300 (1941) 555 (1956) 5890 930 1250 1850 2130 3150 6430 8740 15600 20200
2026-04-20 14:30 12.02 18400 41300 (1941) 555 (1956) 5890 930 1250 1850 2130 3150 6430 8740 15600 20200
2026-04-20 13:30 12.05 18400 41300 (1941) 555 (1956) 5890 930 1250 1850 2130 3150 6430 8740 15600 20200
2026-04-20 12:30 12.09 18500 41300 (1941) 555 (1956) 5890 930 1250 1850 2130 3150 6430 8740 15600 20200
2026-04-20 11:30 12.15 18700 41300 (1941) 555 (1956) 5890 930 1250 1850 2130 3150 6430 8740 15600 20200
2026-04-20 10:30 12.18 18700 41300 (1941) 555 (1956) 5890 930 1250 1850 2130 3150 6430 8740 15600 20200
2026-04-20 09:30 12.22 18800 41300 (1941) 555 (1956) 5890 930 1250 1850 2130 3150 6430 8740 15600 20200
2026-04-20 08:30 12.25 18900 41300 (1941) 555 (1956) 5890 930 1250 1850 2130 3150 6430 8740 15600 20200
2026-04-20 07:30 12.26 18900 41300 (1941) 555 (1956) 5890 930 1250 1850 2130 3150 6430 8740 15600 20200
2026-04-20 06:30 12.26 18900 41300 (1941) 555 (1956) 5890 930 1250 1850 2130 3150 6430 8740 15600 20200
2026-04-20 05:30 12.25 18900 41300 (1941) 555 (1956) 5890 930 1250 1850 2130 3150 6430 8740 15600 20200
2026-04-20 04:30 12.24 18900 41300 (1941) 555 (1956) 5890 930 1250 1850 2130 3150 6430 8740 15600 20200
2026-04-20 03:30 12.18 18700 41300 (1941) 555 (1956) 5890 930 1250 1850 2130 3150 6430 8740 15600 20200
2026-04-20 02:30 12.15 18700 41300 (1941) 555 (1956) 5890 930 1250 1850 2130 3150 6430 8740 15600 20200
2026-04-20 01:30 12.03 18400 41300 (1941) 555 (1956) 5890 930 1250 1850 2130 3150 6430 8740 15600 20200
2026-04-20 00:30 11.93 18100 41300 (1941) 555 (1956) 5890 930 1250 1850 2130 3150 6430 8740 15600 20200
2026-04-19 23:30 11.81 17900 41300 (1941) 555 (1956) 5890 930 1250 1850 2130 3150 6430 8740 15600 20200
2026-04-19 22:30 11.68 17600 34500 (1945) 545 (1956) 5840 873 1250 1770 2010 3500 6160 8030 13900 24200
2026-04-19 21:30 11.53 17200 34500 (1945) 545 (1956) 5840 873 1250 1770 2010 3500 6160 8030 13900 24200
2026-04-19 20:30 11.36 16800 34500 (1945) 545 (1956) 5840 873 1250 1770 2010 3500 6160 8030 13900 24200
2026-04-19 19:30 11.19 16400 34500 (1945) 545 (1956) 5840 873 1250 1770 2010 3500 6160 8030 13900 24200
2026-04-19 18:30 11.00 16000 34500 (1945) 545 (1956) 5840 873 1250 1770 2010 3500 6160 8030 13900 24200
2026-04-19 17:30 10.77 15500 34500 (1945) 545 (1956) 5840 873 1250 1770 2010 3500 6160 8030 13900 24200
2026-04-19 16:30 10.59 15100 34500 (1945) 545 (1956) 5840 873 1250 1770 2010 3500 6160 8030 13900 24200
2026-04-19 15:30 10.39 14600 34500 (1945) 545 (1956) 5840 873 1250 1770 2010 3500 6160 8030 13900 24200
2026-04-19 14:30 10.19 14200 34500 (1945) 545 (1956) 5840 873 1250 1770 2010 3500 6160 8030 13900 24200
2026-04-19 13:30 9.99 13700 34500 (1945) 545 (1956) 5840 873 1250 1770 2010 3500 6160 8030 13900 24200
2026-04-19 12:30 9.82 13400 34500 (1945) 545 (1956) 5840 873 1250 1770 2010 3500 6160 8030 13900 24200
2026-04-19 11:30 9.66 13000 34500 (1945) 545 (1956) 5840 873 1250 1770 2010 3500 6160 8030 13900 24200
2026-04-19 10:30 9.53 12700 34500 (1945) 545 (1956) 5840 873 1250 1770 2010 3500 6160 8030 13900 24200
2026-04-19 09:30 9.43 12500 34500 (1945) 545 (1956) 5840 873 1250 1770 2010 3500 6160 8030 13900 24200
2026-04-19 08:30 9.32 12300 34500 (1945) 545 (1956) 5840 873 1250 1770 2010 3500 6160 8030 13900 24200
2026-04-19 07:30 9.29 12200 34500 (1945) 545 (1956) 5840 873 1250 1770 2010 3500 6160 8030 13900 24200
2026-04-19 06:30 9.28 12200 34500 (1945) 545 (1956) 5840 873 1250 1770 2010 3500 6160 8030 13900 24200
2026-04-19 05:30 9.26 12200 34500 (1945) 545 (1956) 5840 873 1250 1770 2010 3500 6160 8030 13900 24200
2026-04-19 04:30 9.28 12200 34500 (1945) 545 (1956) 5840 873 1250 1770 2010 3500 6160 8030 13900 24200
2026-04-19 03:30 9.31 12300 34500 (1945) 545 (1956) 5840 873 1250 1770 2010 3500 6160 8030 13900 24200
2026-04-19 02:30 9.32 12300 34500 (1945) 545 (1956) 5840 873 1250 1770 2010 3500 6160 8030 13900 24200
2026-04-19 01:30 9.36 12400 34500 (1945) 545 (1956) 5840 873 1250 1770 2010 3500 6160 8030 13900 24200
2026-04-19 00:30 9.38 12400 34500 (1945) 545 (1956) 5840 873 1250 1770 2010 3500 6160 8030 13900 24200
2026-04-18 23:30 9.39 12500 34500 (1945) 545 (1956) 5840 873 1250 1770 2010 3500 6160 8030 13900 24200
2026-04-18 22:30 9.39 12500 54200 (1945) 540 (1956) 6380 876 1300 1830 2060 3450 6510 7320 16500 24900
2026-04-18 21:30 9.40 12500 54200 (1945) 540 (1956) 6380 876 1300 1830 2060 3450 6510 7320 16500 24900
2026-04-18 20:30 9.40 12500 54200 (1945) 540 (1956) 6380 876 1300 1830 2060 3450 6510 7320 16500 24900
2026-04-18 19:30 9.39 12500 54200 (1945) 540 (1956) 6380 876 1300 1830 2060 3450 6510 7320 16500 24900
2026-04-18 18:30 9.36 12400 54200 (1945) 540 (1956) 6380 876 1300 1830 2060 3450 6510 7320 16500 24900
2026-04-18 17:30 9.30 12300 54200 (1945) 540 (1956) 6380 876 1300 1830 2060 3450 6510 7320 16500 24900
2026-04-18 16:30 9.19 12000 54200 (1945) 540 (1956) 6380 876 1300 1830 2060 3450 6510 7320 16500 24900
2026-04-18 15:30 9.03 11700 54200 (1945) 540 (1956) 6380 876 1300 1830 2060 3450 6510 7320 16500 24900
2026-04-18 14:30 8.85 11300 54200 (1945) 540 (1956) 6380 876 1300 1830 2060 3450 6510 7320 16500 24900
2026-04-18 13:30 8.67 11000 54200 (1945) 540 (1956) 6380 876 1300 1830 2060 3450 6510 7320 16500 24900
2026-04-18 12:30 8.52 10700 54200 (1945) 540 (1956) 6380 876 1300 1830 2060 3450 6510 7320 16500 24900
2026-04-18 11:30 8.43 10500 54200 (1945) 540 (1956) 6380 876 1300 1830 2060 3450 6510 7320 16500 24900
2026-04-18 10:30 8.42 10500 54200 (1945) 540 (1956) 6380 876 1300 1830 2060 3450 6510 7320 16500 24900
2026-04-18 09:30 8.47 10600 54200 (1945) 540 (1956) 6380 876 1300 1830 2060 3450 6510 7320 16500 24900
2026-04-18 08:30 8.54 10700 54200 (1945) 540 (1956) 6380 876 1300 1830 2060 3450 6510 7320 16500 24900
2026-04-18 07:30 8.63 10900 54200 (1945) 540 (1956) 6380 876 1300 1830 2060 3450 6510 7320 16500 24900
2026-04-18 06:30 8.71 11000 54200 (1945) 540 (1956) 6380 876 1300 1830 2060 3450 6510 7320 16500 24900
2026-04-18 05:30 8.64 10900 54200 (1945) 540 (1956) 6380 876 1300 1830 2060 3450 6510 7320 16500 24900
2026-04-18 04:30 8.06 9760 54200 (1945) 540 (1956) 6380 876 1300 1830 2060 3450 6510 7320 16500 24900
2026-04-18 03:30 6.99 7590 54200 (1945) 540 (1956) 6380 876 1300 1830 2060 3450 6510 7320 16500 24900
2026-04-18 02:30 6.31 6250 54200 (1945) 540 (1956) 6380 876 1300 1830 2060 3450 6510 7320 16500 24900
2026-04-18 01:30 6.23 6100 54200 (1945) 540 (1956) 6380 876 1300 1830 2060 3450 6510 7320 16500 24900
2026-04-18 00:30 6.25 6140 54200 (1945) 540 (1956) 6380 876 1300 1830 2060 3450 6510 7320 16500 24900
2026-04-17 23:30 6.29 6220 54200 (1945) 540 (1956) 6380 876 1300 1830 2060 3450 6510 7320 16500 24900
2026-04-17 22:30 6.36 6350 76200 (1945) 555 (1956) 6900 994 1380 1920 2130 3500 6230 8380 16800 23200
2026-04-17 21:30 6.40 6420 76200 (1945) 555 (1956) 6900 994 1380 1920 2130 3500 6230 8380 16800 23200
2026-04-17 20:30 6.45 6520 76200 (1945) 555 (1956) 6900 994 1380 1920 2130 3500 6230 8380 16800 23200
2026-04-17 19:30 6.51 6640 76200 (1945) 555 (1956) 6900 994 1380 1920 2130 3500 6230 8380 16800 23200
2026-04-17 18:30 6.56 6730 76200 (1945) 555 (1956) 6900 994 1380 1920 2130 3500 6230 8380 16800 23200
2026-04-17 17:30 6.59 6790 76200 (1945) 555 (1956) 6900 994 1380 1920 2130 3500 6230 8380 16800 23200
2026-04-17 16:30 6.61 6830 76200 (1945) 555 (1956) 6900 994 1380 1920 2130 3500 6230 8380 16800 23200
2026-04-17 15:30 6.62 6850 76200 (1945) 555 (1956) 6900 994 1380 1920 2130 3500 6230 8380 16800 23200
2026-04-17 14:30 6.59 6790 76200 (1945) 555 (1956) 6900 994 1380 1920 2130 3500 6230 8380 16800 23200
2026-04-17 13:30 6.57 6750 76200 (1945) 555 (1956) 6900 994 1380 1920 2130 3500 6230 8380 16800 23200
2026-04-17 12:30 6.53 6670 76200 (1945) 555 (1956) 6900 994 1380 1920 2130 3500 6230 8380 16800 23200
2026-04-17 11:30 6.48 6580 76200 (1945) 555 (1956) 6900 994 1380 1920 2130 3500 6230 8380 16800 23200
2026-04-17 10:30 6.42 6460 76200 (1945) 555 (1956) 6900 994 1380 1920 2130 3500 6230 8380 16800 23200
2026-04-17 09:30 6.37 6370 76200 (1945) 555 (1956) 6900 994 1380 1920 2130 3500 6230 8380 16800 23200
2026-04-17 08:30 6.32 6270 76200 (1945) 555 (1956) 6900 994 1380 1920 2130 3500 6230 8380 16800 23200
2026-04-17 07:30 6.29 6220 76200 (1945) 555 (1956) 6900 994 1380 1920 2130 3500 6230 8380 16800 23200
2026-04-17 06:30 6.26 6160 76200 (1945) 555 (1956) 6900 994 1380 1920 2130 3500 6230 8380 16800 23200
2026-04-17 05:30 6.24 6120 76200 (1945) 555 (1956) 6900 994 1380 1920 2130 3500 6230 8380 16800 23200
2026-04-17 04:30 6.23 6100 76200 (1945) 555 (1956) 6900 994 1380 1920 2130 3500 6230 8380 16800 23200
2026-04-17 03:30 6.22 6080 76200 (1945) 555 (1956) 6900 994 1380 1920 2130 3500 6230 8380 16800 23200
2026-04-17 02:30 6.22 6080 76200 (1945) 555 (1956) 6900 994 1380 1920 2130 3500 6230 8380 16800 23200
2026-04-17 01:30 6.22 6080 76200 (1945) 555 (1956) 6900 994 1380 1920 2130 3500 6230 8380 16800 23200
2026-04-17 00:30 6.23 6100 76200 (1945) 555 (1956) 6900 994 1380 1920 2130 3500 6230 8380 16800 23200
2026-04-16 23:30 6.22 6080 76200 (1945) 555 (1956) 6900 994 1380 1920 2130 3500 6230 8380 16800 23200
2026-04-16 22:30 6.20 6050 91100 (1945) 576 (1956) 7000 1020 1400 2030 2270 4070 6870 8220 16000 23100
2026-04-16 21:30 6.15 5950 91100 (1945) 576 (1956) 7000 1020 1400 2030 2270 4070 6870 8220 16000 23100
2026-04-16 20:30 6.13 5920 91100 (1945) 576 (1956) 7000 1020 1400 2030 2270 4070 6870 8220 16000 23100
2026-04-16 19:30 6.12 5900 91100 (1945) 576 (1956) 7000 1020 1400 2030 2270 4070 6870 8220 16000 23100
2026-04-16 18:30 6.13 5920 91100 (1945) 576 (1956) 7000 1020 1400 2030 2270 4070 6870 8220 16000 23100
2026-04-16 17:30 6.18 6010 91100 (1945) 576 (1956) 7000 1020 1400 2030 2270 4070 6870 8220 16000 23100
2026-04-16 16:30 6.23 6100 91100 (1945) 576 (1956) 7000 1020 1400 2030 2270 4070 6870 8220 16000 23100
2026-04-16 15:30 6.29 6220 91100 (1945) 576 (1956) 7000 1020 1400 2030 2270 4070 6870 8220 16000 23100
2026-04-16 14:30 6.34 6310 91100 (1945) 576 (1956) 7000 1020 1400 2030 2270 4070 6870 8220 16000 23100
2026-04-16 13:30 6.38 6390 91100 (1945) 576 (1956) 7000 1020 1400 2030 2270 4070 6870 8220 16000 23100
2026-04-16 12:30 6.39 6410 91100 (1945) 576 (1956) 7000 1020 1400 2030 2270 4070 6870 8220 16000 23100
2026-04-16 11:30 6.38 6390 91100 (1945) 576 (1956) 7000 1020 1400 2030 2270 4070 6870 8220 16000 23100
2026-04-16 10:30 6.38 6390 91100 (1945) 576 (1956) 7000 1020 1400 2030 2270 4070 6870 8220 16000 23100
2026-04-16 09:30 6.36 6350 91100 (1945) 576 (1956) 7000 1020 1400 2030 2270 4070 6870 8220 16000 23100
2026-04-16 08:30 6.36 6350 91100 (1945) 576 (1956) 7000 1020 1400 2030 2270 4070 6870 8220 16000 23100
2026-04-16 07:30 6.33 6290 91100 (1945) 576 (1956) 7000 1020 1400 2030 2270 4070 6870 8220 16000 23100
2026-04-16 06:30 6.26 6160 91100 (1945) 576 (1956) 7000 1020 1400 2030 2270 4070 6870 8220 16000 23100
2026-04-16 05:30 6.09 5840 91100 (1945) 576 (1956) 7000 1020 1400 2030 2270 4070 6870 8220 16000 23100
2026-04-16 04:30 5.83 5370 91100 (1945) 576 (1956) 7000 1020 1400 2030 2270 4070 6870 8220 16000 23100
2026-04-16 03:30 5.45 4720 91100 (1945) 576 (1956) 7000 1020 1400 2030 2270 4070 6870 8220 16000 23100
2026-04-16 02:30 4.94 3890 91100 (1945) 576 (1956) 7000 1020 1400 2030 2270 4070 6870 8220 16000 23100
2026-04-16 01:30 4.36 3020 91100 (1945) 576 (1956) 7000 1020 1400 2030 2270 4070 6870 8220 16000 23100
2026-04-16 00:30 3.96 2450 91100 (1945) 576 (1956) 7000 1020 1400 2030 2270 4070 6870 8220 16000 23100
2026-04-15 23:30 3.77 2180 91100 (1945) 576 (1956) 7000 1020 1400 2030 2270 4070 6870 8220 16000 23100
2026-04-15 22:30 3.72 2110 61800 (1945) 555 (1956) 6390 876 1480 1980 2310 3700 7130 8760 11700 23600
2026-04-15 21:30 3.70 2080 61800 (1945) 555 (1956) 6390 876 1480 1980 2310 3700 7130 8760 11700 23600
2026-04-15 20:30 3.67 2040 61800 (1945) 555 (1956) 6390 876 1480 1980 2310 3700 7130 8760 11700 23600
2026-04-15 19:30 3.65 2010 61800 (1945) 555 (1956) 6390 876 1480 1980 2310 3700 7130 8760 11700 23600
2026-04-15 18:30 3.66 2020 61800 (1945) 555 (1956) 6390 876 1480 1980 2310 3700 7130 8760 11700 23600
2026-04-15 17:30 3.66 2020 61800 (1945) 555 (1956) 6390 876 1480 1980 2310 3700 7130 8760 11700 23600
2026-04-15 16:30 3.67 2040 61800 (1945) 555 (1956) 6390 876 1480 1980 2310 3700 7130 8760 11700 23600
2026-04-15 15:30 3.67 2040 61800 (1945) 555 (1956) 6390 876 1480 1980 2310 3700 7130 8760 11700 23600
2026-04-15 14:30 3.67 2040 61800 (1945) 555 (1956) 6390 876 1480 1980 2310 3700 7130 8760 11700 23600
2026-04-15 13:30 3.67 2040 61800 (1945) 555 (1956) 6390 876 1480 1980 2310 3700 7130 8760 11700 23600
2026-04-15 12:30 3.68 2050 61800 (1945) 555 (1956) 6390 876 1480 1980 2310 3700 7130 8760 11700 23600
2026-04-15 11:30 3.68 2050 61800 (1945) 555 (1956) 6390 876 1480 1980 2310 3700 7130 8760 11700 23600
2026-04-15 10:30 3.68 2050 61800 (1945) 555 (1956) 6390 876 1480 1980 2310 3700 7130 8760 11700 23600
2026-04-15 09:30 3.68 2050 61800 (1945) 555 (1956) 6390 876 1480 1980 2310 3700 7130 8760 11700 23600
2026-04-15 08:30 3.68 2050 61800 (1945) 555 (1956) 6390 876 1480 1980 2310 3700 7130 8760 11700 23600
2026-04-15 07:30 3.67 2040 61800 (1945) 555 (1956) 6390 876 1480 1980 2310 3700 7130 8760 11700 23600
2026-04-15 06:30 3.68 2050 61800 (1945) 555 (1956) 6390 876 1480 1980 2310 3700 7130 8760 11700 23600
2026-04-15 05:30 3.68 2050 61800 (1945) 555 (1956) 6390 876 1480 1980 2310 3700 7130 8760 11700 23600
2026-04-15 04:30 3.69 2060 61800 (1945) 555 (1956) 6390 876 1480 1980 2310 3700 7130 8760 11700 23600
2026-04-15 03:30 3.70 2080 61800 (1945) 555 (1956) 6390 876 1480 1980 2310 3700 7130 8760 11700 23600
2026-04-15 02:30 3.70 2080 61800 (1945) 555 (1956) 6390 876 1480 1980 2310 3700 7130 8760 11700 23600
2026-04-15 01:30 3.70 2080 61800 (1945) 555 (1956) 6390 876 1480 1980 2310 3700 7130 8760 11700 23600
2026-04-15 00:30 3.70 2080 61800 (1945) 555 (1956) 6390 876 1480 1980 2310 3700 7130 8760 11700 23600
2026-04-14 23:30 3.70 2080 61800 (1945) 555 (1956) 6390 876 1480 1980 2310 3700 7130 8760 11700 23600
2026-04-14 22:30 3.71 2090 52700 (1994) 561 (1956) 6080 865 1460 2030 2340 3170 6650 8220 13600 20000
2026-04-14 21:30 3.71 2090 52700 (1994) 561 (1956) 6080 865 1460 2030 2340 3170 6650 8220 13600 20000
2026-04-14 20:30 3.72 2110 52700 (1994) 561 (1956) 6080 865 1460 2030 2340 3170 6650 8220 13600 20000
2026-04-14 19:30 3.72 2110 52700 (1994) 561 (1956) 6080 865 1460 2030 2340 3170 6650 8220 13600 20000
2026-04-14 18:30 3.72 2110 52700 (1994) 561 (1956) 6080 865 1460 2030 2340 3170 6650 8220 13600 20000
2026-04-14 17:30 3.73 2120 52700 (1994) 561 (1956) 6080 865 1460 2030 2340 3170 6650 8220 13600 20000
2026-04-14 16:30 3.73 2120 52700 (1994) 561 (1956) 6080 865 1460 2030 2340 3170 6650 8220 13600 20000
2026-04-14 15:30 3.74 2130 52700 (1994) 561 (1956) 6080 865 1460 2030 2340 3170 6650 8220 13600 20000
2026-04-14 14:30 3.75 2150 52700 (1994) 561 (1956) 6080 865 1460 2030 2340 3170 6650 8220 13600 20000
2026-04-14 13:30 3.76 2160 52700 (1994) 561 (1956) 6080 865 1460 2030 2340 3170 6650 8220 13600 20000
2026-04-14 12:30 3.76 2160 52700 (1994) 561 (1956) 6080 865 1460 2030 2340 3170 6650 8220 13600 20000
2026-04-14 11:30 3.76 2160 52700 (1994) 561 (1956) 6080 865 1460 2030 2340 3170 6650 8220 13600 20000
2026-04-14 09:30 3.77 2180 52700 (1994) 561 (1956) 6080 865 1460 2030 2340 3170 6650 8220 13600 20000
2026-04-14 08:30 3.78 2190 52700 (1994) 561 (1956) 6080 865 1460 2030 2340 3170 6650 8220 13600 20000
2026-04-14 07:30 3.79 2200 52700 (1994) 561 (1956) 6080 865 1460 2030 2340 3170 6650 8220 13600 20000
2026-04-14 06:30 3.79 2200 52700 (1994) 561 (1956) 6080 865 1460 2030 2340 3170 6650 8220 13600 20000
2026-04-14 05:30 3.79 2200 52700 (1994) 561 (1956) 6080 865 1460 2030 2340 3170 6650 8220 13600 20000
2026-04-14 04:30 3.79 2200 52700 (1994) 561 (1956) 6080 865 1460 2030 2340 3170 6650 8220 13600 20000
2026-04-14 03:30 3.80 2220 52700 (1994) 561 (1956) 6080 865 1460 2030 2340 3170 6650 8220 13600 20000
2026-04-14 02:30 3.81 2230 52700 (1994) 561 (1956) 6080 865 1460 2030 2340 3170 6650 8220 13600 20000
2026-04-14 01:30 3.80 2220 52700 (1994) 561 (1956) 6080 865 1460 2030 2340 3170 6650 8220 13600 20000
2026-04-14 00:30 3.80 2220 52700 (1994) 561 (1956) 6080 865 1460 2030 2340 3170 6650 8220 13600 20000
2026-04-13 23:30 3.80 2220 52700 (1994) 561 (1956) 6080 865 1460 2030 2340 3170 6650 8220 13600 20000
2026-04-13 22:30 3.81 2230 56000 (1994) 592 (1956) 5850 893 1530 1940 2100 3300 5800 7610 13600 17700
2026-04-13 21:30 3.81 2230 56000 (1994) 592 (1956) 5850 893 1530 1940 2100 3300 5800 7610 13600 17700
2026-04-13 20:30 3.82 2250 56000 (1994) 592 (1956) 5850 893 1530 1940 2100 3300 5800 7610 13600 17700
2026-04-13 19:30 3.82 2250 56000 (1994) 592 (1956) 5850 893 1530 1940 2100 3300 5800 7610 13600 17700
2026-04-13 18:30 3.83 2260 56000 (1994) 592 (1956) 5850 893 1530 1940 2100 3300 5800 7610 13600 17700
2026-04-13 17:30 3.83 2260 56000 (1994) 592 (1956) 5850 893 1530 1940 2100 3300 5800 7610 13600 17700
2026-04-13 16:30 3.84 2280 56000 (1994) 592 (1956) 5850 893 1530 1940 2100 3300 5800 7610 13600 17700
2026-04-13 15:30 3.84 2280 56000 (1994) 592 (1956) 5850 893 1530 1940 2100 3300 5800 7610 13600 17700
2026-04-13 14:30 3.85 2290 56000 (1994) 592 (1956) 5850 893 1530 1940 2100 3300 5800 7610 13600 17700
2026-04-13 13:30 3.85 2290 56000 (1994) 592 (1956) 5850 893 1530 1940 2100 3300 5800 7610 13600 17700
2026-04-13 12:30 3.86 2300 56000 (1994) 592 (1956) 5850 893 1530 1940 2100 3300 5800 7610 13600 17700
2026-04-13 11:30 3.86 2300 56000 (1994) 592 (1956) 5850 893 1530 1940 2100 3300 5800 7610 13600 17700
2026-04-13 10:30 3.86 2300 56000 (1994) 592 (1956) 5850 893 1530 1940 2100 3300 5800 7610 13600 17700
2026-04-13 09:30 3.87 2320 56000 (1994) 592 (1956) 5850 893 1530 1940 2100 3300 5800 7610 13600 17700
2026-04-13 08:30 3.88 2330 56000 (1994) 592 (1956) 5850 893 1530 1940 2100 3300 5800 7610 13600 17700
2026-04-13 07:30 3.88 2330 56000 (1994) 592 (1956) 5850 893 1530 1940 2100 3300 5800 7610 13600 17700
2026-04-13 06:30 3.89 2350 56000 (1994) 592 (1956) 5850 893 1530 1940 2100 3300 5800 7610 13600 17700
2026-04-13 05:30 3.89 2350 56000 (1994) 592 (1956) 5850 893 1530 1940 2100 3300 5800 7610 13600 17700
2026-04-13 04:30 3.90 2360 56000 (1994) 592 (1956) 5850 893 1530 1940 2100 3300 5800 7610 13600 17700
2026-04-13 03:30 3.91 2380 56000 (1994) 592 (1956) 5850 893 1530 1940 2100 3300 5800 7610 13600 17700
2026-04-13 02:30 3.92 2390 56000 (1994) 592 (1956) 5850 893 1530 1940 2100 3300 5800 7610 13600 17700
2026-04-13 01:30 3.92 2390 56000 (1994) 592 (1956) 5850 893 1530 1940 2100 3300 5800 7610 13600 17700
2026-04-13 00:30 3.93 2410 56000 (1994) 592 (1956) 5850 893 1530 1940 2100 3300 5800 7610 13600 17700
2026-04-12 23:30 3.94 2420 56000 (1994) 592 (1956) 5850 893 1530 1940 2100 3300 5800 7610 13600 17700
2026-04-12 22:30 3.94 2420 56600 (1994) 643 (1956) 5740 964 1480 1780 2160 3440 5580 6160 11800 20000
2026-04-12 21:30 3.95 2440 56600 (1994) 643 (1956) 5740 964 1480 1780 2160 3440 5580 6160 11800 20000
2026-04-12 20:30 3.96 2450 56600 (1994) 643 (1956) 5740 964 1480 1780 2160 3440 5580 6160 11800 20000
2026-04-12 19:30 3.97 2470 56600 (1994) 643 (1956) 5740 964 1480 1780 2160 3440 5580 6160 11800 20000
2026-04-12 18:30 3.98 2480 56600 (1994) 643 (1956) 5740 964 1480 1780 2160 3440 5580 6160 11800 20000
2026-04-12 17:30 3.98 2480 56600 (1994) 643 (1956) 5740 964 1480 1780 2160 3440 5580 6160 11800 20000
2026-04-12 16:30 3.99 2500 56600 (1994) 643 (1956) 5740 964 1480 1780 2160 3440 5580 6160 11800 20000
2026-04-12 15:30 4.00 2510 56600 (1994) 643 (1956) 5740 964 1480 1780 2160 3440 5580 6160 11800 20000
2026-04-12 14:30 4.00 2510 56600 (1994) 643 (1956) 5740 964 1480 1780 2160 3440 5580 6160 11800 20000
2026-04-12 13:30 4.02 2540 56600 (1994) 643 (1956) 5740 964 1480 1780 2160 3440 5580 6160 11800 20000
2026-04-12 12:30 4.02 2540 56600 (1994) 643 (1956) 5740 964 1480 1780 2160 3440 5580 6160 11800 20000
2026-04-12 11:30 4.04 2570 56600 (1994) 643 (1956) 5740 964 1480 1780 2160 3440 5580 6160 11800 20000
2026-04-12 10:30 4.03 2560 56600 (1994) 643 (1956) 5740 964 1480 1780 2160 3440 5580 6160 11800 20000
2026-04-12 09:30 4.04 2570 56600 (1994) 643 (1956) 5740 964 1480 1780 2160 3440 5580 6160 11800 20000
2026-04-12 08:30 4.05 2590 56600 (1994) 643 (1956) 5740 964 1480 1780 2160 3440 5580 6160 11800 20000
2026-04-12 07:30 4.05 2590 56600 (1994) 643 (1956) 5740 964 1480 1780 2160 3440 5580 6160 11800 20000
2026-04-12 06:30 4.06 2600 56600 (1994) 643 (1956) 5740 964 1480 1780 2160 3440 5580 6160 11800 20000
2026-04-12 05:30 4.07 2620 56600 (1994) 643 (1956) 5740 964 1480 1780 2160 3440 5580 6160 11800 20000
2026-04-12 04:30 4.08 2630 56600 (1994) 643 (1956) 5740 964 1480 1780 2160 3440 5580 6160 11800 20000
2026-04-12 03:30 4.08 2630 56600 (1994) 643 (1956) 5740 964 1480 1780 2160 3440 5580 6160 11800 20000
2026-04-12 02:30 4.09 2650 56600 (1994) 643 (1956) 5740 964 1480 1780 2160 3440 5580 6160 11800 20000
2026-04-12 01:30 4.10 2660 56600 (1994) 643 (1956) 5740 964 1480 1780 2160 3440 5580 6160 11800 20000
2026-04-12 00:30 4.11 2670 56600 (1994) 643 (1956) 5740 964 1480 1780 2160 3440 5580 6160 11800 20000
2026-04-11 23:30 4.12 2690 56600 (1994) 643 (1956) 5740 964 1480 1780 2160 3440 5580 6160 11800 20000
2026-04-11 22:30 4.12 2690 34900 (1994) 603 (1956) 5150 936 1450 1760 2160 3460 5600 6370 9540 18500
2026-04-11 21:30 4.13 2700 34900 (1994) 603 (1956) 5150 936 1450 1760 2160 3460 5600 6370 9540 18500
2026-04-11 20:30 4.14 2710 34900 (1994) 603 (1956) 5150 936 1450 1760 2160 3460 5600 6370 9540 18500
2026-04-11 19:30 4.15 2730 34900 (1994) 603 (1956) 5150 936 1450 1760 2160 3460 5600 6370 9540 18500
2026-04-11 18:30 4.16 2740 34900 (1994) 603 (1956) 5150 936 1450 1760 2160 3460 5600 6370 9540 18500
2026-04-11 17:30 4.17 2760 34900 (1994) 603 (1956) 5150 936 1450 1760 2160 3460 5600 6370 9540 18500
2026-04-11 16:30 4.18 2770 34900 (1994) 603 (1956) 5150 936 1450 1760 2160 3460 5600 6370 9540 18500
2026-04-11 15:30 4.19 2780 34900 (1994) 603 (1956) 5150 936 1450 1760 2160 3460 5600 6370 9540 18500
2026-04-11 14:30 4.20 2800 34900 (1994) 603 (1956) 5150 936 1450 1760 2160 3460 5600 6370 9540 18500
2026-04-11 13:30 4.20 2800 34900 (1994) 603 (1956) 5150 936 1450 1760 2160 3460 5600 6370 9540 18500
2026-04-11 12:30 4.21 2810 34900 (1994) 603 (1956) 5150 936 1450 1760 2160 3460 5600 6370 9540 18500
2026-04-11 11:30 4.22 2820 34900 (1994) 603 (1956) 5150 936 1450 1760 2160 3460 5600 6370 9540 18500
2026-04-11 10:30 4.22 2820 34900 (1994) 603 (1956) 5150 936 1450 1760 2160 3460 5600 6370 9540 18500
2026-04-11 09:30 4.23 2840 34900 (1994) 603 (1956) 5150 936 1450 1760 2160 3460 5600 6370 9540 18500
2026-04-11 08:30 4.24 2850 34900 (1994) 603 (1956) 5150 936 1450 1760 2160 3460 5600 6370 9540 18500
2026-04-11 07:30 4.25 2870 34900 (1994) 603 (1956) 5150 936 1450 1760 2160 3460 5600 6370 9540 18500
2026-04-11 06:30 4.26 2880 34900 (1994) 603 (1956) 5150 936 1450 1760 2160 3460 5600 6370 9540 18500
2026-04-11 05:30 4.26 2880 34900 (1994) 603 (1956) 5150 936 1450 1760 2160 3460 5600 6370 9540 18500
2026-04-11 04:30 4.28 2910 34900 (1994) 603 (1956) 5150 936 1450 1760 2160 3460 5600 6370 9540 18500
2026-04-11 03:30 4.29 2920 34900 (1994) 603 (1956) 5150 936 1450 1760 2160 3460 5600 6370 9540 18500
2026-04-11 02:30 4.30 2940 34900 (1994) 603 (1956) 5150 936 1450 1760 2160 3460 5600 6370 9540 18500
2026-04-11 01:30 4.30 2940 34900 (1994) 603 (1956) 5150 936 1450 1760 2160 3460 5600 6370 9540 18500
2026-04-11 00:30 4.32 2960 34900 (1994) 603 (1956) 5150 936 1450 1760 2160 3460 5600 6370 9540 18500
2026-04-10 23:30 4.32 2960 34900 (1994) 603 (1956) 5150 936 1450 1760 2160 3460 5600 6370 9540 18500
2026-04-10 22:30 4.33 2980 19200 (1929) 540 (1956) 4580 947 1500 1760 1900 3610 4930 5790 11500 16000
2026-04-10 21:30 4.34 2990 19200 (1929) 540 (1956) 4580 947 1500 1760 1900 3610 4930 5790 11500 16000
2026-04-10 20:30 4.35 3010 19200 (1929) 540 (1956) 4580 947 1500 1760 1900 3610 4930 5790 11500 16000
2026-04-10 19:30 4.36 3020 19200 (1929) 540 (1956) 4580 947 1500 1760 1900 3610 4930 5790 11500 16000
2026-04-10 18:30 4.38 3050 19200 (1929) 540 (1956) 4580 947 1500 1760 1900 3610 4930 5790 11500 16000
2026-04-10 17:30 4.39 3060 19200 (1929) 540 (1956) 4580 947 1500 1760 1900 3610 4930 5790 11500 16000
2026-04-10 16:30 4.40 3080 19200 (1929) 540 (1956) 4580 947 1500 1760 1900 3610 4930 5790 11500 16000
2026-04-10 15:30 4.41 3090 19200 (1929) 540 (1956) 4580 947 1500 1760 1900 3610 4930 5790 11500 16000
2026-04-10 14:30 4.42 3110 19200 (1929) 540 (1956) 4580 947 1500 1760 1900 3610 4930 5790 11500 16000
2026-04-10 13:30 4.43 3120 19200 (1929) 540 (1956) 4580 947 1500 1760 1900 3610 4930 5790 11500 16000
2026-04-10 12:30 4.44 3130 19200 (1929) 540 (1956) 4580 947 1500 1760 1900 3610 4930 5790 11500 16000
2026-04-10 11:30 4.46 3160 19200 (1929) 540 (1956) 4580 947 1500 1760 1900 3610 4930 5790 11500 16000
2026-04-10 10:30 4.46 3160 19200 (1929) 540 (1956) 4580 947 1500 1760 1900 3610 4930 5790 11500 16000
2026-04-10 09:30 4.48 3190 19200 (1929) 540 (1956) 4580 947 1500 1760 1900 3610 4930 5790 11500 16000
2026-04-10 08:30 4.49 3210 19200 (1929) 540 (1956) 4580 947 1500 1760 1900 3610 4930 5790 11500 16000
2026-04-10 07:30 4.49 3210 19200 (1929) 540 (1956) 4580 947 1500 1760 1900 3610 4930 5790 11500 16000
2026-04-10 06:30 4.51 3240 19200 (1929) 540 (1956) 4580 947 1500 1760 1900 3610 4930 5790 11500 16000
2026-04-10 05:30 4.52 3250 19200 (1929) 540 (1956) 4580 947 1500 1760 1900 3610 4930 5790 11500 16000
2026-04-10 04:30 4.54 3280 19200 (1929) 540 (1956) 4580 947 1500 1760 1900 3610 4930 5790 11500 16000
2026-04-10 03:30 4.55 3290 19200 (1929) 540 (1956) 4580 947 1500 1760 1900 3610 4930 5790 11500 16000
2026-04-10 02:30 4.56 3310 19200 (1929) 540 (1956) 4580 947 1500 1760 1900 3610 4930 5790 11500 16000
2026-04-10 01:30 4.58 3340 19200 (1929) 540 (1956) 4580 947 1500 1760 1900 3610 4930 5790 11500 16000
2026-04-10 00:30 4.59 3350 19200 (1929) 540 (1956) 4580 947 1500 1760 1900 3610 4930 5790 11500 16000
2026-04-09 23:30 4.60 3370 19200 (1929) 540 (1956) 4580 947 1500 1760 1900 3610 4930 5790 11500 16000

A total of 729 rows are displayed for years 1922 through 2025.